Time,TemperatureF,DewpointF,PressureIn,WindDirection,WindDirectionDegrees,WindSpeedMPH,WindSpeedGustMPH,Humidity,HourlyPrecipIn,Conditions,Clouds,dailyrainin,SoftwareType,DateUTC
2013-04-18 00:01:00,56.8,46.0,29.65,WSW,248,0.0,0.0,67,0.00,,---,0.00,VWS V14.01,2013-04-17 22:01:00,
2013-04-18 00:04:00,56.8,45.6,29.65,West,270,4.3,9.6,66,0.00,,---,0.00,VWS V14.01,2013-04-17 22:04:00,
2013-04-18 00:07:00,56.8,46.0,29.65,WNW,292,0.0,4.5,67,0.00,,---,0.00,VWS V14.01,2013-04-17 22:07:00,
2013-04-18 00:08:00,56.8,46.0,29.65,WSW,248,0.0,0.0,67,0.00,,---,0.00,VWS V14.01,2013-04-17 22:08:00,
2013-04-18 00:11:00,56.8,46.0,29.65,SW,225,0.0,4.7,67,0.00,,---,0.00,VWS V14.01,2013-04-17 22:11:00,
2013-04-18 00:14:00,56.7,45.8,29.65,NNW,338,6.3,7.4,67,0.00,,---,0.00,VWS V14.01,2013-04-17 22:14:00,
2013-04-18 00:15:00,56.7,45.8,29.65,WNW,292,0.0,6.3,67,0.00,,---,0.00,VWS V14.01,2013-04-17 22:15:00,
2013-04-18 00:17:00,56.7,45.8,29.65,West,270,0.0,0.0,67,0.00,,---,0.00,VWS V14.01,2013-04-17 22:17:00,
2013-04-18 00:20:00,56.7,45.8,29.65,WNW,292,0.0,0.0,67,0.00,,---,0.00,VWS V14.01,2013-04-17 22:20:00,
2013-04-18 00:21:00,56.7,45.8,29.65,NNW,338,0.0,0.0,67,0.00,,---,0.00,VWS V14.01,2013-04-17 22:21:00,
2013-04-18 00:23:00,56.7,45.8,29.65,NNW,338,0.0,0.0,67,0.00,,---,0.00,VWS V14.01,2013-04-17 22:23:00,
2013-04-18 00:24:00,56.7,46.2,29.65,NW,315,0.0,0.0,68,0.00,,---,0.00,VWS V14.01,2013-04-17 22:24:00,
2013-04-18 00:25:00,56.7,46.2,29.65,WNW,292,0.0,0.0,68,0.00,,---,0.00,VWS V14.01,2013-04-17 22:25:00,
2013-04-18 00:27:00,56.7,46.6,29.65,WNW,292,0.0,3.1,69,0.00,,---,0.00,VWS V14.01,2013-04-17 22:27:00,
2013-04-18 00:29:00,56.7,47.0,29.65,NW,315,1.6,7.2,70,0.00,,---,0.00,VWS V14.01,2013-04-17 22:29:00,
2013-04-18 00:31:00,56.7,47.4,29.65,WNW,292,9.8,9.8,71,0.00,,---,0.00,VWS V14.01,2013-04-17 22:31:00,
2013-04-18 00:35:00,56.7,47.4,29.65,WNW,292,6.3,6.9,71,0.00,,---,0.00,VWS V14.01,2013-04-17 22:35:00,
2013-04-18 00:37:00,56.7,47.4,29.65,NNW,338,5.6,7.2,71,0.00,,---,0.00,VWS V14.01,2013-04-17 22:37:00,
2013-04-18 00:39:00,56.5,46.5,29.65,WNW,292,10.7,10.7,69,0.00,,---,0.00,VWS V14.01,2013-04-17 22:39:00,
2013-04-18 00:41:00,56.5,46.1,29.65,WNW,292,0.0,10.7,68,0.00,,---,0.00,VWS V14.01,2013-04-17 22:41:00,
2013-04-18 00:45:00,56.1,42.9,29.65,NNW,338,0.0,9.6,61,0.00,,---,0.00,VWS V14.01,2013-04-17 22:45:00,
2013-04-18 00:46:00,56.1,42.9,29.65,WNW,292,0.0,0.0,61,0.00,,---,0.00,VWS V14.01,2013-04-17 22:46:00,
2013-04-18 00:48:00,55.9,41.8,29.65,WNW,292,0.0,0.0,59,0.00,,---,0.00,VWS V14.01,2013-04-17 22:48:00,
2013-04-18 00:49:00,55.8,41.2,29.65,WNW,292,0.0,0.0,58,0.00,,---,0.00,VWS V14.01,2013-04-17 22:49:00,
2013-04-18 00:52:00,55.6,40.2,29.65,West,270,0.0,0.0,56,0.00,,---,0.00,VWS V14.01,2013-04-17 22:52:00,
2013-04-18 00:53:00,55.4,39.5,29.65,WSW,248,3.8,3.8,55,0.00,,---,0.00,VWS V14.01,2013-04-17 22:53:00,
2013-04-18 00:55:00,55.4,39.5,29.65,NNW,338,0.0,8.1,55,0.00,,---,0.00,VWS V14.01,2013-04-17 22:55:00,
2013-04-18 00:57:00,55.4,39.5,29.65,WNW,292,2.5,4.9,55,0.00,,---,0.00,VWS V14.01,2013-04-17 22:57:00,
2013-04-18 00:59:00,55.2,39.8,29.65,NNE,22,4.9,6.7,56,0.00,,---,0.00,VWS V14.01,2013-04-17 22:59:00,
2013-04-18 01:00:00,55.0,39.7,29.65,WSW,248,3.4,6.9,56,0.00,,---,0.00,VWS V14.01,2013-04-17 23:00:00,
2013-04-18 01:03:00,55.0,39.2,29.65,WNW,292,8.1,11.9,55,0.00,,---,0.00,VWS V14.01,2013-04-17 23:03:00,
2013-04-18 01:04:00,55.0,38.7,29.65,WNW,292,12.3,12.3,54,0.00,,---,0.00,VWS V14.01,2013-04-17 23:04:00,
2013-04-18 01:06:00,55.0,38.7,29.65,NNW,338,10.5,12.3,54,0.00,,---,0.00,VWS V14.01,2013-04-17 23:06:00,
2013-04-18 01:07:00,55.0,38.7,29.65,West,270,10.7,10.7,54,0.00,,---,0.00,VWS V14.01,2013-04-17 23:07:00,
2013-04-18 01:10:00,55.0,38.7,29.65,WNW,292,5.4,8.5,54,0.00,,---,0.00,VWS V14.01,2013-04-17 23:10:00,
2013-04-18 01:11:00,55.0,38.7,29.65,WSW,248,0.0,8.1,54,0.00,,---,0.00,VWS V14.01,2013-04-17 23:11:00,
2013-04-18 01:14:00,54.9,38.5,29.65,WNW,292,2.7,10.1,54,0.00,,---,0.00,VWS V14.01,2013-04-17 23:14:00,
2013-04-18 01:17:00,54.9,37.6,29.65,WNW,292,11.0,12.5,52,0.00,,---,0.00,VWS V14.01,2013-04-17 23:17:00,
2013-04-18 01:18:00,54.9,37.6,29.65,NW,315,6.5,11.9,52,0.00,,---,0.00,VWS V14.01,2013-04-17 23:18:00,
2013-04-18 01:21:00,54.9,38.1,29.65,WNW,292,0.0,11.4,53,0.00,,---,0.00,VWS V14.01,2013-04-17 23:21:00,
2013-04-18 01:23:00,54.7,37.9,29.65,NNW,338,0.0,0.0,53,0.00,,---,0.00,VWS V14.01,2013-04-17 23:23:00,
2013-04-18 01:27:00,54.5,37.2,29.65,NW,315,0.0,0.0,52,0.00,,---,0.00,VWS V14.01,2013-04-17 23:27:00,
2013-04-18 01:28:00,54.5,37.7,29.65,WNW,292,0.0,0.0,53,0.00,,---,0.00,VWS V14.01,2013-04-17 23:28:00,
2013-04-18 01:29:00,54.5,37.2,29.65,WNW,292,0.0,0.0,52,0.00,,---,0.00,VWS V14.01,2013-04-17 23:29:00,
2013-04-18 01:32:00,54.3,37.6,29.65,NNW,338,12.1,12.1,53,0.00,,---,0.00,VWS V14.01,2013-04-17 23:32:00,
2013-04-18 01:34:00,54.3,37.1,29.65,NNW,338,5.8,12.1,52,0.00,,---,0.00,VWS V14.01,2013-04-17 23:34:00,
2013-04-18 01:37:00,54.3,37.1,29.65,NNW,338,10.3,10.7,52,0.00,,---,0.00,VWS V14.01,2013-04-17 23:37:00,
2013-04-18 01:38:00,54.1,36.9,29.65,WNW,292,7.6,10.3,52,0.00,,---,0.00,VWS V14.01,2013-04-17 23:38:00,
2013-04-18 01:42:00,54.0,36.3,29.68,North,0,6.3,15.2,51,0.00,,---,0.00,VWS V14.01,2013-04-17 23:42:00,
2013-04-18 01:45:00,53.8,36.6,29.68,WNW,292,7.6,7.6,52,0.00,,---,0.00,VWS V14.01,2013-04-17 23:45:00,
2013-04-18 01:49:00,53.6,36.9,29.68,WSW,248,4.3,10.7,53,0.00,,---,0.00,VWS V14.01,2013-04-17 23:49:00,
2013-04-18 01:51:00,53.6,36.9,29.68,WNW,292,8.5,8.5,53,0.00,,---,0.00,VWS V14.01,2013-04-17 23:51:00,
2013-04-18 01:52:00,53.6,36.9,29.68,WNW,292,10.1,10.1,53,0.00,,---,0.00,VWS V14.01,2013-04-17 23:52:00,
2013-04-18 01:53:00,53.4,37.2,29.68,WNW,292,10.3,10.3,54,0.00,,---,0.00,VWS V14.01,2013-04-17 23:53:00,
2013-04-18 01:56:00,53.4,37.7,29.68,WNW,292,10.1,10.1,55,0.00,,---,0.00,VWS V14.01,2013-04-17 23:56:00,
2013-04-18 01:58:00,53.2,37.5,29.68,West,270,7.8,8.5,55,0.00,,---,0.00,VWS V14.01,2013-04-17 23:58:00,
2013-04-18 02:03:00,53.2,38.4,29.68,WNW,292,8.5,9.2,57,0.00,,---,0.00,VWS V14.01,2013-04-18 00:03:00,
2013-04-18 02:05:00,53.2,38.4,29.68,WNW,292,6.5,10.5,57,0.00,,---,0.00,VWS V14.01,2013-04-18 00:05:00,
2013-04-18 02:06:00,53.1,38.7,29.68,WNW,292,8.7,11.0,58,0.00,,---,0.00,VWS V14.01,2013-04-18 00:06:00,
2013-04-18 02:09:00,53.1,38.7,29.68,WNW,292,5.8,8.7,58,0.00,,---,0.00,VWS V14.01,2013-04-18 00:09:00,
2013-04-18 02:10:00,53.1,39.1,29.68,NNW,338,8.1,10.7,59,0.00,,---,0.00,VWS V14.01,2013-04-18 00:10:00,
2013-04-18 02:13:00,53.1,39.1,29.71,NNW,338,5.8,12.1,59,0.00,,---,0.00,VWS V14.01,2013-04-18 00:13:00,
2013-04-18 02:15:00,53.1,39.6,29.71,WNW,292,6.0,10.7,60,0.00,,---,0.00,VWS V14.01,2013-04-18 00:15:00,
2013-04-18 02:18:00,53.1,39.6,29.71,WNW,292,9.8,9.8,60,0.00,,---,0.00,VWS V14.01,2013-04-18 00:18:00,
2013-04-18 02:19:00,53.1,39.6,29.71,NW,315,7.4,9.8,60,0.00,,---,0.00,VWS V14.01,2013-04-18 00:19:00,
2013-04-18 02:20:00,53.1,39.6,29.71,NW,315,8.7,9.6,60,0.00,,---,0.00,VWS V14.01,2013-04-18 00:20:00,
2013-04-18 02:23:00,53.1,40.0,29.71,WSW,248,7.6,10.7,61,0.00,,---,0.00,VWS V14.01,2013-04-18 00:23:00,
2013-04-18 02:24:00,53.1,40.0,29.71,WNW,292,11.2,11.2,61,0.00,,---,0.00,VWS V14.01,2013-04-18 00:24:00,
2013-04-18 02:26:00,53.1,40.0,29.71,North,0,5.8,11.0,61,0.00,,---,0.00,VWS V14.01,2013-04-18 00:26:00,
2013-04-18 02:27:00,52.9,39.8,29.71,WNW,292,10.1,10.1,61,0.00,,---,0.00,VWS V14.01,2013-04-18 00:27:00,
2013-04-18 02:30:00,52.9,40.2,29.71,NNW,338,7.4,8.7,62,0.00,,---,0.00,VWS V14.01,2013-04-18 00:30:00,
2013-04-18 02:31:00,53.1,40.4,29.71,WNW,292,9.0,9.0,62,0.00,,---,0.00,VWS V14.01,2013-04-18 00:31:00,
2013-04-18 02:33:00,53.1,40.4,29.71,NW,315,2.9,9.6,62,0.00,,---,0.00,VWS V14.01,2013-04-18 00:33:00,
2013-04-18 02:34:00,53.1,40.8,29.71,WNW,292,0.0,7.6,63,0.00,,---,0.00,VWS V14.01,2013-04-18 00:34:00,
2013-04-18 02:35:00,53.1,40.8,29.71,WNW,292,10.1,10.1,63,0.00,,---,0.00,VWS V14.01,2013-04-18 00:35:00,
2013-04-18 02:40:00,53.2,42.2,29.71,WNW,292,9.4,9.4,66,0.00,,---,0.00,VWS V14.01,2013-04-18 00:40:00,
2013-04-18 02:41:00,53.2,42.2,29.71,WNW,292,5.4,9.4,66,0.00,,---,0.00,VWS V14.01,2013-04-18 00:41:00,
2013-04-18 02:42:00,53.2,42.2,29.71,NNW,338,0.0,8.7,66,0.00,,---,0.00,VWS V14.01,2013-04-18 00:42:00,
2013-04-18 02:45:00,53.4,43.5,29.71,WNW,292,8.1,8.5,69,0.00,,---,0.00,VWS V14.01,2013-04-18 00:45:00,
2013-04-18 02:48:00,53.4,43.9,29.71,NNW,338,8.5,8.5,70,0.00,,---,0.00,VWS V14.01,2013-04-18 00:48:00,
2013-04-18 02:51:00,53.6,44.8,29.71,SSW,202,0.0,6.3,72,0.00,,---,0.00,VWS V14.01,2013-04-18 00:51:00,
2013-04-18 02:52:00,53.8,46.4,29.71,WSW,248,6.0,6.3,76,0.00,,---,0.00,VWS V14.01,2013-04-18 00:52:00,
2013-04-18 02:53:00,54.3,48.6,29.71,WSW,248,7.6,11.0,81,0.00,,---,0.00,VWS V14.01,2013-04-18 00:53:00,
2013-04-18 02:55:00,54.5,49.5,29.71,WSW,248,9.8,11.0,83,0.00,,---,0.00,VWS V14.01,2013-04-18 00:55:00,
2013-04-18 02:56:00,54.5,49.5,29.71,WSW,248,9.8,9.8,83,0.00,,---,0.00,VWS V14.01,2013-04-18 00:56:00,
2013-04-18 02:57:00,54.7,50.3,29.71,WSW,248,5.4,9.8,85,0.00,,---,0.00,VWS V14.01,2013-04-18 00:57:00,
2013-04-18 02:59:00,54.9,51.4,29.71,WSW,248,7.8,7.8,88,0.00,,---,0.00,VWS V14.01,2013-04-18 00:59:00,
2013-04-18 03:02:00,55.6,53.3,29.71,WSW,248,7.8,7.8,92,0.00,,---,0.00,VWS V14.01,2013-04-18 01:02:00,
2013-04-18 03:06:00,56.3,54.9,29.71,SSW,202,6.5,6.5,95,0.00,,---,0.00,VWS V14.01,2013-04-18 01:06:00,
2013-04-18 03:08:00,56.8,55.7,29.71,WSW,248,5.4,7.2,96,0.00,,---,0.00,VWS V14.01,2013-04-18 01:08:00,
2013-04-18 03:13:00,58.6,58.1,29.71,SSW,202,7.6,10.1,98,0.00,,---,0.00,VWS V14.01,2013-04-18 01:13:00,
2013-04-18 03:15:00,59.0,58.4,29.71,WSW,248,6.0,9.8,98,0.00,,---,0.00,VWS V14.01,2013-04-18 01:15:00,
2013-04-18 03:16:00,59.2,58.6,29.71,WSW,248,5.6,7.8,98,0.00,,---,0.00,VWS V14.01,2013-04-18 01:16:00,
2013-04-18 03:17:00,59.7,59.2,29.71,WSW,248,0.0,1.6,98,0.00,,---,0.00,VWS V14.01,2013-04-18 01:17:00,
2013-04-18 03:20:00,60.1,59.5,29.71,West,270,0.0,3.8,98,0.00,,---,0.00,VWS V14.01,2013-04-18 01:20:00,
2013-04-18 03:23:00,60.1,59.5,29.71,WSW,248,0.0,0.0,98,0.00,,---,0.00,VWS V14.01,2013-04-18 01:23:00,
2013-04-18 03:29:00,59.9,59.3,29.71,WSW,248,0.9,4.7,98,0.00,,---,0.00,VWS V14.01,2013-04-18 01:29:00,
2013-04-18 03:30:00,59.9,59.3,29.71,WSW,248,2.2,2.2,98,0.00,,---,0.00,VWS V14.01,2013-04-18 01:30:00,
2013-04-18 03:31:00,59.7,59.2,29.71,WNW,292,0.0,2.0,98,0.00,,---,0.00,VWS V14.01,2013-04-18 01:31:00,
2013-04-18 03:36:00,59.2,58.6,29.71,WNW,292,2.7,4.7,98,0.00,,---,0.00,VWS V14.01,2013-04-18 01:36:00,
2013-04-18 03:37:00,59.0,58.4,29.71,WNW,292,3.4,5.6,98,0.00,,---,0.00,VWS V14.01,2013-04-18 01:37:00,
2013-04-18 03:38:00,58.8,58.3,29.71,WNW,292,3.4,3.4,98,0.00,,---,0.00,VWS V14.01,2013-04-18 01:38:00,
2013-04-18 03:41:00,58.5,57.9,29.74,West,270,0.0,0.0,98,0.00,,---,0.00,VWS V14.01,2013-04-18 01:41:00,
2013-04-18 03:44:00,58.3,57.7,29.74,WNW,292,0.0,0.0,98,0.00,,---,0.00,VWS V14.01,2013-04-18 01:44:00,
2013-04-18 03:45:00,57.9,57.4,29.74,NNW,338,0.0,0.0,98,0.00,,---,0.00,VWS V14.01,2013-04-18 01:45:00,
2013-04-18 03:46:00,57.6,56.7,29.74,NW,315,0.0,0.0,97,0.00,,---,0.00,VWS V14.01,2013-04-18 01:46:00,
2013-04-18 03:51:00,57.0,56.2,29.74,WNW,292,0.0,0.0,97,0.00,,---,0.00,VWS V14.01,2013-04-18 01:51:00,
2013-04-18 03:54:00,56.8,56.0,29.74,WNW,292,0.0,6.3,97,0.00,,---,0.00,VWS V14.01,2013-04-18 01:54:00,
2013-04-18 03:55:00,56.8,56.0,29.74,WNW,292,5.4,5.4,97,0.00,,---,0.00,VWS V14.01,2013-04-18 01:55:00,
2013-04-18 03:57:00,56.8,56.0,29.74,NW,315,3.8,5.8,97,0.00,,---,0.00,VWS V14.01,2013-04-18 01:57:00,
2013-04-18 04:01:00,56.8,56.3,29.74,WNW,292,0.0,0.0,98,0.00,,---,0.00,VWS V14.01,2013-04-18 02:01:00,
2013-04-18 04:04:00,56.8,56.3,29.74,WNW,292,0.0,3.4,98,0.00,,---,0.00,VWS V14.01,2013-04-18 02:04:00,
2013-04-18 04:05:00,56.8,56.3,29.74,WNW,292,0.0,4.7,98,0.00,,---,0.00,VWS V14.01,2013-04-18 02:05:00,
2013-04-18 04:09:00,57.0,56.5,29.74,WNW,292,7.2,7.2,98,0.00,,---,0.00,VWS V14.01,2013-04-18 02:09:00,
2013-04-18 04:11:00,57.0,56.5,29.74,WNW,292,5.6,8.5,98,0.00,,---,0.00,VWS V14.01,2013-04-18 02:11:00,
2013-04-18 04:12:00,57.2,56.6,29.74,WNW,292,1.1,5.8,98,0.00,,---,0.00,VWS V14.01,2013-04-18 02:12:00,
2013-04-18 04:17:00,57.6,57.0,29.74,NNW,338,0.0,3.6,98,0.00,,---,0.00,VWS V14.01,2013-04-18 02:17:00,
2013-04-18 04:19:00,57.6,57.0,29.74,WNW,292,3.8,6.0,98,0.00,,---,0.00,VWS V14.01,2013-04-18 02:19:00,
2013-04-18 04:23:00,57.6,57.0,29.74,WNW,292,0.0,2.9,98,0.00,,---,0.00,VWS V14.01,2013-04-18 02:23:00,
2013-04-18 04:24:00,57.7,57.2,29.74,WNW,292,0.0,0.0,98,0.00,,---,0.00,VWS V14.01,2013-04-18 02:24:00,
2013-04-18 04:29:00,57.9,57.4,29.74,WNW,292,0.0,0.0,98,0.00,,---,0.00,VWS V14.01,2013-04-18 02:29:00,
2013-04-18 04:30:00,57.9,57.4,29.74,WNW,292,0.0,0.0,98,0.00,,---,0.00,VWS V14.01,2013-04-18 02:30:00,
2013-04-18 04:32:00,57.9,57.4,29.74,WNW,292,0.0,0.0,98,0.00,,---,0.00,VWS V14.01,2013-04-18 02:32:00,
2013-04-18 04:34:00,57.9,57.4,29.74,NNE,22,0.0,0.0,98,0.00,,---,0.00,VWS V14.01,2013-04-18 02:34:00,
2013-04-18 04:36:00,58.1,57.5,29.74,North,0,0.0,0.0,98,0.00,,---,0.00,VWS V14.01,2013-04-18 02:36:00,
2013-04-18 04:37:00,58.1,57.5,29.74,WNW,292,0.0,0.0,98,0.00,,---,0.00,VWS V14.01,2013-04-18 02:37:00,
2013-04-18 04:43:00,58.3,57.7,29.76,WNW,292,2.7,6.7,98,0.00,,---,0.00,VWS V14.01,2013-04-18 02:43:00,
2013-04-18 04:45:00,58.3,57.7,29.76,WNW,292,7.6,7.6,98,0.00,,---,0.00,VWS V14.01,2013-04-18 02:45:00,
2013-04-18 04:46:00,58.3,57.7,29.76,WNW,292,8.7,8.7,98,0.00,,---,0.00,VWS V14.01,2013-04-18 02:46:00,
2013-04-18 04:50:00,58.5,57.9,29.76,WNW,292,0.9,7.4,98,0.00,,---,0.00,VWS V14.01,2013-04-18 02:50:00,
2013-04-18 04:53:00,58.5,57.9,29.76,NNW,338,0.0,4.5,98,0.00,,---,0.00,VWS V14.01,2013-04-18 02:53:00,
2013-04-18 04:54:00,58.5,57.9,29.76,WNW,292,0.0,0.0,98,0.00,,---,0.00,VWS V14.01,2013-04-18 02:54:00,
2013-04-18 04:57:00,58.5,57.9,29.76,WNW,292,0.0,0.0,98,0.00,,---,0.00,VWS V14.01,2013-04-18 02:57:00,
2013-04-18 05:00:00,58.5,57.9,29.76,WNW,292,0.0,0.0,98,0.00,,---,0.00,VWS V14.01,2013-04-18 03:00:00,
2013-04-18 05:01:00,58.5,57.9,29.76,NNW,338,0.0,0.0,98,0.00,,---,0.00,VWS V14.01,2013-04-18 03:01:00,
2013-04-18 05:04:00,58.5,57.9,29.76,NW,315,0.0,0.0,98,0.00,,---,0.00,VWS V14.01,2013-04-18 03:04:00,
2013-04-18 05:05:00,58.5,57.9,29.76,NNW,338,0.0,0.0,98,0.00,,---,0.00,VWS V14.01,2013-04-18 03:05:00,
2013-04-18 05:07:00,58.5,57.9,29.76,WNW,292,0.0,0.0,98,0.00,,---,0.00,VWS V14.01,2013-04-18 03:07:00,
2013-04-18 05:12:00,58.1,57.5,29.76,WNW,292,0.0,0.0,98,0.00,,---,0.00,VWS V14.01,2013-04-18 03:12:00,
2013-04-18 05:13:00,58.1,57.5,29.76,WNW,292,0.0,0.0,98,0.00,,---,0.00,VWS V14.01,2013-04-18 03:13:00,
2013-04-18 05:14:00,58.1,57.5,29.76,WNW,292,0.0,0.0,98,0.00,,---,0.00,VWS V14.01,2013-04-18 03:14:00,
2013-04-18 05:16:00,58.1,57.5,29.76,WNW,292,0.0,0.0,98,0.00,,---,0.00,VWS V14.01,2013-04-18 03:16:00,
2013-04-18 05:17:00,57.9,57.4,29.76,WNW,292,0.0,0.0,98,0.00,,---,0.00,VWS V14.01,2013-04-18 03:17:00,
2013-04-18 05:19:00,57.9,57.4,29.76,North,0,6.0,8.5,98,0.00,,---,0.00,VWS V14.01,2013-04-18 03:19:00,
2013-04-18 05:22:00,57.9,57.4,29.76,WNW,292,8.7,8.7,98,0.00,,---,0.00,VWS V14.01,2013-04-18 03:22:00,
2013-04-18 05:25:00,57.9,57.4,29.76,WNW,292,5.8,6.9,98,0.00,,---,0.00,VWS V14.01,2013-04-18 03:25:00,
2013-04-18 05:26:00,57.9,57.4,29.76,WNW,292,5.4,7.6,98,0.00,,---,0.00,VWS V14.01,2013-04-18 03:26:00,
2013-04-18 05:28:00,57.9,57.4,29.76,WNW,292,4.7,7.2,98,0.00,,---,0.00,VWS V14.01,2013-04-18 03:28:00,
2013-04-18 05:29:00,57.9,57.4,29.76,WSW,248,0.0,6.5,98,0.00,,---,0.00,VWS V14.01,2013-04-18 03:29:00,
2013-04-18 05:32:00,57.7,57.2,29.76,WNW,292,8.1,8.1,98,0.00,,---,0.00,VWS V14.01,2013-04-18 03:32:00,
2013-04-18 05:33:00,57.7,57.2,29.76,NW,315,6.3,6.3,98,0.00,,---,0.00,VWS V14.01,2013-04-18 03:33:00,
2013-04-18 05:35:00,57.7,57.2,29.76,WNW,292,5.6,6.3,98,0.00,,---,0.00,VWS V14.01,2013-04-18 03:35:00,
2013-04-18 05:37:00,57.7,57.2,29.76,WNW,292,0.0,0.0,98,0.00,,---,0.00,VWS V14.01,2013-04-18 03:37:00,
2013-04-18 05:39:00,57.7,57.2,29.76,WNW,292,0.0,0.0,98,0.00,,---,0.00,VWS V14.01,2013-04-18 03:39:00,
2013-04-18 05:40:00,57.7,57.2,29.76,NNW,338,8.5,8.5,98,0.00,,---,0.00,VWS V14.01,2013-04-18 03:40:00,
2013-04-18 05:43:00,57.7,57.2,29.76,WNW,292,0.0,9.4,98,0.00,,---,0.00,VWS V14.01,2013-04-18 03:43:00,
2013-04-18 05:47:00,57.6,57.0,29.76,WNW,292,1.6,7.8,98,0.00,,---,0.00,VWS V14.01,2013-04-18 03:47:00,
2013-04-18 05:49:00,57.6,57.0,29.76,West,270,4.3,4.3,98,0.00,,---,0.00,VWS V14.01,2013-04-18 03:49:00,
2013-04-18 05:50:00,57.6,57.0,29.76,NNE,22,6.5,6.5,98,0.00,,---,0.00,VWS V14.01,2013-04-18 03:50:00,
2013-04-18 05:53:00,57.6,57.0,29.76,WNW,292,0.0,0.0,98,0.00,,---,0.00,VWS V14.01,2013-04-18 03:53:00,
2013-04-18 05:54:00,57.6,57.0,29.76,WNW,292,6.3,6.3,98,0.00,,---,0.00,VWS V14.01,2013-04-18 03:54:00,
2013-04-18 05:55:00,57.6,57.0,29.76,NNW,338,0.0,6.3,98,0.00,,---,0.00,VWS V14.01,2013-04-18 03:55:00,
2013-04-18 06:00:00,57.6,57.0,29.79,WNW,292,0.0,7.4,98,0.00,,---,0.00,VWS V14.01,2013-04-18 04:00:00,
2013-04-18 06:01:00,57.6,57.0,29.79,WNW,292,8.7,8.7,98,0.00,,---,0.00,VWS V14.01,2013-04-18 04:01:00,
2013-04-18 06:02:00,57.6,57.0,29.79,NNW,338,7.6,8.7,98,0.00,,---,0.00,VWS V14.01,2013-04-18 04:02:00,
2013-04-18 06:03:00,57.6,57.0,29.79,WNW,292,0.0,4.3,98,0.00,,---,0.00,VWS V14.01,2013-04-18 04:03:00,
2013-04-18 06:04:00,57.6,57.0,29.79,NNW,338,0.0,0.0,98,0.00,,---,0.00,VWS V14.01,2013-04-18 04:04:00,
2013-04-18 06:08:00,57.7,57.2,29.79,WNW,292,0.0,0.0,98,0.00,,---,0.00,VWS V14.01,2013-04-18 04:08:00,
2013-04-18 06:10:00,57.7,57.2,29.79,WNW,292,0.0,0.0,98,0.00,,---,0.00,VWS V14.01,2013-04-18 04:10:00,
2013-04-18 06:11:00,57.7,57.2,29.79,West,270,0.0,0.0,98,0.00,,---,0.00,VWS V14.01,2013-04-18 04:11:00,
2013-04-18 06:15:00,57.7,57.2,29.79,WNW,292,0.0,0.0,98,0.00,,---,0.00,VWS V14.01,2013-04-18 04:15:00,
2013-04-18 06:16:00,57.9,57.4,29.79,WNW,292,0.0,0.0,98,0.00,,---,0.00,VWS V14.01,2013-04-18 04:16:00,
2013-04-18 06:18:00,57.9,57.4,29.79,WNW,292,0.0,0.0,98,0.00,,---,0.00,VWS V14.01,2013-04-18 04:18:00,
2013-04-18 06:21:00,57.9,57.4,29.79,NNW,338,0.0,1.1,98,0.00,,---,0.00,VWS V14.01,2013-04-18 04:21:00,
2013-04-18 06:23:00,57.9,57.4,29.79,WNW,292,0.0,0.0,98,0.00,,---,0.00,VWS V14.01,2013-04-18 04:23:00,
2013-04-18 06:25:00,57.9,57.4,29.79,WNW,292,0.0,0.0,98,0.00,,---,0.00,VWS V14.01,2013-04-18 04:25:00,
2013-04-18 06:27:00,57.9,57.4,29.79,WNW,292,0.0,3.6,98,0.00,,---,0.00,VWS V14.01,2013-04-18 04:27:00,
2013-04-18 06:29:00,57.9,57.4,29.79,WNW,292,0.0,0.0,98,0.00,,---,0.00,VWS V14.01,2013-04-18 04:29:00,
2013-04-18 06:30:00,57.9,57.4,29.79,WNW,292,0.0,0.0,98,0.00,,---,0.00,VWS V14.01,2013-04-18 04:30:00,
2013-04-18 06:34:00,57.9,57.4,29.79,WNW,292,0.0,0.0,98,0.00,,---,0.00,VWS V14.01,2013-04-18 04:34:00,
2013-04-18 06:36:00,57.9,57.4,29.79,WNW,292,0.0,0.0,98,0.00,,---,0.00,VWS V14.01,2013-04-18 04:36:00,
2013-04-18 06:37:00,57.9,57.4,29.79,WNW,292,5.8,9.6,98,0.00,,---,0.00,VWS V14.01,2013-04-18 04:37:00,
2013-04-18 06:38:00,57.9,57.4,29.79,NW,315,4.9,6.3,98,0.00,,---,0.00,VWS V14.01,2013-04-18 04:38:00,
2013-04-18 06:39:00,57.9,57.4,29.79,WNW,292,6.3,6.3,98,0.00,,---,0.00,VWS V14.01,2013-04-18 04:39:00,
2013-04-18 06:42:00,58.1,57.5,29.79,WNW,292,6.5,8.5,98,0.00,,---,0.00,VWS V14.01,2013-04-18 04:42:00,
2013-04-18 06:44:00,58.1,57.5,29.79,WNW,292,1.6,8.7,98,0.00,,---,0.00,VWS V14.01,2013-04-18 04:44:00,
2013-04-18 06:45:00,58.1,57.5,29.79,WNW,292,0.0,7.4,98,0.00,,---,0.00,VWS V14.01,2013-04-18 04:45:00,
2013-04-18 06:49:00,58.1,57.5,29.79,NNW,338,6.5,9.0,98,0.00,,---,0.00,VWS V14.01,2013-04-18 04:49:00,
2013-04-18 06:52:00,58.3,57.7,29.79,North,0,0.0,8.5,98,0.00,,---,0.00,VWS V14.01,2013-04-18 04:52:00,
2013-04-18 06:53:00,58.3,57.7,29.79,West,270,0.0,0.9,98,0.00,,---,0.00,VWS V14.01,2013-04-18 04:53:00,
2013-04-18 06:54:00,58.3,57.7,29.79,WNW,292,0.0,0.0,98,0.00,,---,0.00,VWS V14.01,2013-04-18 04:54:00,
2013-04-18 06:55:00,58.3,57.7,29.82,WNW,292,0.0,0.0,98,0.00,,---,0.00,VWS V14.01,2013-04-18 04:55:00,
2013-04-18 06:57:00,58.3,57.7,29.82,WNW,292,0.0,0.0,98,0.00,,---,0.00,VWS V14.01,2013-04-18 04:57:00,
2013-04-18 07:01:00,58.5,57.9,29.82,WNW,292,0.0,0.0,98,0.00,,---,0.00,VWS V14.01,2013-04-18 05:01:00,
2013-04-18 07:05:00,58.5,57.9,29.82,WNW,292,0.0,0.0,98,0.00,,---,0.00,VWS V14.01,2013-04-18 05:05:00,
2013-04-18 07:06:00,58.5,57.9,29.82,NW,315,0.0,0.0,98,0.00,,---,0.00,VWS V14.01,2013-04-18 05:06:00,
2013-04-18 07:09:00,58.5,57.9,29.82,WNW,292,0.0,0.0,98,0.00,,---,0.00,VWS V14.01,2013-04-18 05:09:00,
2013-04-18 07:10:00,58.5,57.9,29.82,NNW,338,0.0,0.0,98,0.00,,---,0.00,VWS V14.01,2013-04-18 05:10:00,
2013-04-18 07:14:00,58.5,57.9,29.82,NNW,338,0.0,6.3,98,0.00,,---,0.00,VWS V14.01,2013-04-18 05:14:00,
2013-04-18 07:16:00,58.6,58.1,29.82,WNW,292,0.0,0.0,98,0.00,,---,0.00,VWS V14.01,2013-04-18 05:16:00,
2013-04-18 07:18:00,58.6,58.1,29.82,WNW,292,2.5,2.5,98,0.00,,---,0.00,VWS V14.01,2013-04-18 05:18:00,
2013-04-18 07:20:00,58.6,58.1,29.82,WNW,292,4.3,4.3,98,0.00,,---,0.00,VWS V14.01,2013-04-18 05:20:00,
2013-04-18 07:22:00,58.8,58.3,29.82,WNW,292,4.3,7.4,98,0.00,,---,0.00,VWS V14.01,2013-04-18 05:22:00,
2013-04-18 07:23:00,58.8,58.3,29.82,NNW,338,6.0,6.0,98,0.00,,---,0.00,VWS V14.01,2013-04-18 05:23:00,
2013-04-18 07:25:00,58.8,58.3,29.85,NNW,338,0.0,5.4,98,0.00,,---,0.00,VWS V14.01,2013-04-18 05:25:00,
2013-04-18 07:26:00,58.8,58.3,29.85,WNW,292,9.8,9.8,98,0.00,,---,0.00,VWS V14.01,2013-04-18 05:26:00,
2013-04-18 07:27:00,58.8,58.3,29.85,WNW,292,0.0,9.8,98,0.00,,---,0.00,VWS V14.01,2013-04-18 05:27:00,
2013-04-18 07:31:00,58.8,58.3,29.85,WNW,292,3.8,3.8,98,0.00,,---,0.00,VWS V14.01,2013-04-18 05:31:00,
2013-04-18 07:33:00,59.0,58.4,29.85,NW,315,0.0,3.1,98,0.00,,---,0.00,VWS V14.01,2013-04-18 05:33:00,
2013-04-18 07:36:00,59.0,58.4,29.85,WNW,292,5.6,5.6,98,0.00,,---,0.00,VWS V14.01,2013-04-18 05:36:00,
2013-04-18 07:38:00,59.0,58.4,29.85,WNW,292,7.4,7.4,98,0.00,,---,0.00,VWS V14.01,2013-04-18 05:38:00,
2013-04-18 07:39:00,59.0,58.4,29.85,WNW,292,0.0,7.4,98,0.00,,---,0.00,VWS V14.01,2013-04-18 05:39:00,
2013-04-18 07:41:00,59.0,58.4,29.85,WSW,248,5.4,6.5,98,0.00,,---,0.00,VWS V14.01,2013-04-18 05:41:00,
2013-04-18 07:42:00,59.0,58.4,29.85,WNW,292,0.0,5.8,98,0.00,,---,0.00,VWS V14.01,2013-04-18 05:42:00,
2013-04-18 07:45:00,59.0,58.4,29.85,WNW,292,5.8,6.0,98,0.00,,---,0.00,VWS V14.01,2013-04-18 05:45:00,
2013-04-18 07:47:00,59.0,58.4,29.85,WNW,292,4.5,8.5,98,0.00,,---,0.00,VWS V14.01,2013-04-18 05:47:00,
2013-04-18 07:48:00,59.2,58.6,29.85,WNW,292,0.0,4.5,98,0.00,,---,0.00,VWS V14.01,2013-04-18 05:48:00,
2013-04-18 07:52:00,59.0,58.4,29.85,WNW,292,0.9,7.8,98,0.00,,---,0.00,VWS V14.01,2013-04-18 05:52:00,
2013-04-18 07:53:00,59.2,58.6,29.85,WNW,292,7.4,7.4,98,0.00,,---,0.00,VWS V14.01,2013-04-18 05:53:00,
2013-04-18 07:57:00,59.9,59.3,29.85,WNW,292,7.8,7.8,98,0.00,,---,0.00,VWS V14.01,2013-04-18 05:57:00,
2013-04-18 07:58:00,59.7,59.2,29.85,WNW,292,7.8,7.8,98,0.00,,---,0.00,VWS V14.01,2013-04-18 05:58:00,
2013-04-18 07:59:00,59.7,59.2,29.85,WNW,292,7.8,7.8,98,0.00,,---,0.00,VWS V14.01,2013-04-18 05:59:00,
2013-04-18 08:02:00,59.7,58.9,29.85,WSW,248,3.4,3.4,97,0.00,,---,0.00,VWS V14.01,2013-04-18 06:02:00,
2013-04-18 08:03:00,59.7,58.6,29.85,WSW,248,3.4,3.4,96,0.00,,---,0.00,VWS V14.01,2013-04-18 06:03:00,
2013-04-18 08:05:00,59.5,58.1,29.85,WSW,248,3.4,3.4,95,0.00,,---,0.00,VWS V14.01,2013-04-18 06:05:00,
2013-04-18 08:06:00,59.4,57.6,29.85,WSW,248,3.4,3.4,94,0.00,,---,0.00,VWS V14.01,2013-04-18 06:06:00,
2013-04-18 08:07:00,59.4,57.3,29.85,WSW,248,3.4,3.4,93,0.00,,---,0.00,VWS V14.01,2013-04-18 06:07:00,
2013-04-18 08:08:00,59.4,57.3,29.85,WSW,248,3.4,3.4,93,0.00,,---,0.00,VWS V14.01,2013-04-18 06:08:00,
2013-04-18 08:12:00,57.6,54.0,29.85,WSW,248,3.4,3.4,88,0.00,,---,0.00,VWS V14.01,2013-04-18 06:12:00,
2013-04-18 08:13:00,57.2,53.4,29.85,WSW,248,3.4,3.4,87,0.00,,---,0.00,VWS V14.01,2013-04-18 06:13:00,
2013-04-18 08:16:00,56.8,52.7,29.85,WSW,248,3.4,3.4,86,0.00,,---,0.00,VWS V14.01,2013-04-18 06:16:00,
2013-04-18 08:19:00,56.5,52.3,29.85,WNW,292,0.0,0.0,86,0.00,,---,0.00,VWS V14.01,2013-04-18 06:19:00,
2013-04-18 08:20:00,56.3,52.2,29.85,WNW,292,0.9,0.9,86,0.00,,---,0.00,VWS V14.01,2013-04-18 06:20:00,
2013-04-18 08:21:00,56.3,52.2,29.85,NW,315,0.0,0.9,86,0.00,,---,0.00,VWS V14.01,2013-04-18 06:21:00,
2013-04-18 08:26:00,55.8,51.3,29.85,WNW,292,0.0,0.0,85,0.00,,---,0.00,VWS V14.01,2013-04-18 06:26:00,
2013-04-18 08:27:00,55.9,51.5,29.85,WSW,248,0.0,0.0,85,0.00,,---,0.00,VWS V14.01,2013-04-18 06:27:00,
2013-04-18 08:28:00,55.8,51.3,29.85,WSW,248,0.0,0.0,85,0.00,,---,0.00,VWS V14.01,2013-04-18 06:28:00,
2013-04-18 08:29:00,55.9,51.5,29.85,NNW,338,0.0,0.0,85,0.00,,---,0.00,VWS V14.01,2013-04-18 06:29:00,
2013-04-18 08:31:00,55.9,51.8,29.85,NNW,338,0.0,0.0,86,0.00,,---,0.00,VWS V14.01,2013-04-18 06:31:00,
2013-04-18 08:34:00,56.1,52.6,29.85,WNW,292,0.0,0.0,88,0.00,,---,0.00,VWS V14.01,2013-04-18 06:34:00,
2013-04-18 08:35:00,56.1,52.6,29.85,NNW,338,0.0,0.0,88,0.00,,---,0.00,VWS V14.01,2013-04-18 06:35:00,
2013-04-18 08:38:00,56.3,53.1,29.85,WSW,248,0.0,0.0,89,0.00,,---,0.00,VWS V14.01,2013-04-18 06:38:00,
2013-04-18 08:40:00,56.3,53.1,29.88,WSW,248,0.0,0.0,89,0.00,,---,0.00,VWS V14.01,2013-04-18 06:40:00,
2013-04-18 08:43:00,56.3,52.8,29.88,West,270,0.0,0.0,88,0.00,,---,0.00,VWS V14.01,2013-04-18 06:43:00,
2013-04-18 08:45:00,56.3,52.8,29.88,WNW,292,0.0,0.0,88,0.00,,---,0.00,VWS V14.01,2013-04-18 06:45:00,
2013-04-18 08:48:00,56.3,52.5,29.88,WNW,292,0.0,0.0,87,0.00,,---,0.00,VWS V14.01,2013-04-18 06:48:00,
2013-04-18 08:52:00,56.3,52.8,29.88,WNW,292,0.0,0.0,88,0.00,,---,0.00,VWS V14.01,2013-04-18 06:52:00,
2013-04-18 08:53:00,56.3,52.8,29.88,WNW,292,0.0,0.0,88,0.00,,---,0.00,VWS V14.01,2013-04-18 06:53:00,
2013-04-18 08:57:00,56.3,53.1,29.88,WNW,292,0.0,0.0,89,0.00,,---,0.00,VWS V14.01,2013-04-18 06:57:00,
2013-04-18 08:59:00,56.3,53.1,29.88,WNW,292,0.0,0.0,89,0.00,,---,0.00,VWS V14.01,2013-04-18 06:59:00,
2013-04-18 09:00:00,56.5,53.0,29.88,WNW,292,0.0,0.0,88,0.00,,---,0.00,VWS V14.01,2013-04-18 07:00:00,
2013-04-18 09:02:00,56.7,53.5,29.88,NNW,338,0.0,0.0,89,0.00,,---,0.00,VWS V14.01,2013-04-18 07:02:00,
2013-04-18 09:04:00,57.2,53.7,29.88,WNW,292,0.0,9.4,88,0.00,,---,0.00,VWS V14.01,2013-04-18 07:04:00,
2013-04-18 09:06:00,57.2,53.7,29.88,WNW,292,0.0,0.0,88,0.00,,---,0.00,VWS V14.01,2013-04-18 07:06:00,
2013-04-18 09:07:00,57.7,53.9,29.88,WNW,292,0.0,0.0,87,0.00,,---,0.00,VWS V14.01,2013-04-18 07:07:00,
2013-04-18 09:10:00,57.6,53.4,29.88,SSW,202,0.0,0.0,86,0.00,,---,0.00,VWS V14.01,2013-04-18 07:10:00,
2013-04-18 09:12:00,57.6,53.1,29.88,WNW,292,7.8,7.8,85,0.00,,---,0.00,VWS V14.01,2013-04-18 07:12:00,
2013-04-18 09:15:00,57.2,51.4,29.88,WNW,292,0.0,5.4,81,0.00,,---,0.00,VWS V14.01,2013-04-18 07:15:00,
2013-04-18 09:16:00,57.2,51.4,29.88,West,270,0.0,4.0,81,0.00,,---,0.00,VWS V14.01,2013-04-18 07:16:00,
2013-04-18 09:17:00,57.2,51.4,29.88,WNW,292,7.8,7.8,81,0.00,,---,0.00,VWS V14.01,2013-04-18 07:17:00,
2013-04-18 09:18:00,57.0,51.6,29.88,WNW,292,0.0,7.8,82,0.00,,---,0.00,VWS V14.01,2013-04-18 07:18:00,
2013-04-18 09:23:00,57.7,52.0,29.88,WNW,292,6.5,7.8,81,0.00,,---,0.00,VWS V14.01,2013-04-18 07:23:00,
2013-04-18 09:25:00,58.1,52.3,29.88,WNW,292,7.4,7.4,81,0.00,,---,0.00,VWS V14.01,2013-04-18 07:25:00,
2013-04-18 09:27:00,58.8,53.0,29.88,WNW,292,0.0,7.4,81,0.00,,---,0.00,VWS V14.01,2013-04-18 07:27:00,
2013-04-18 09:28:00,59.0,51.8,29.88,WNW,292,4.3,5.8,77,0.00,,---,0.00,VWS V14.01,2013-04-18 07:28:00,
2013-04-18 09:31:00,59.0,50.0,29.88,WNW,292,0.0,0.0,72,0.00,,---,0.00,VWS V14.01,2013-04-18 07:31:00,
2013-04-18 09:32:00,58.6,48.5,29.88,WNW,292,0.0,0.0,69,0.00,,---,0.00,VWS V14.01,2013-04-18 07:32:00,
2013-04-18 09:34:00,58.1,46.8,29.88,NNW,338,0.0,5.8,66,0.00,,---,0.00,VWS V14.01,2013-04-18 07:34:00,
2013-04-18 09:35:00,58.1,46.8,29.88,WNW,292,0.0,0.0,66,0.00,,---,0.00,VWS V14.01,2013-04-18 07:35:00,
2013-04-18 09:37:00,57.6,45.5,29.88,WNW,292,4.3,4.3,64,0.00,,---,0.00,VWS V14.01,2013-04-18 07:37:00,
2013-04-18 09:40:00,57.7,46.1,29.88,NNW,338,0.0,0.0,65,0.00,,---,0.00,VWS V14.01,2013-04-18 07:40:00,
2013-04-18 09:41:00,57.4,45.7,29.88,WNW,292,0.0,5.8,65,0.00,,---,0.00,VWS V14.01,2013-04-18 07:41:00,
2013-04-18 09:43:00,57.6,45.9,29.88,WNW,292,0.0,0.0,65,0.00,,---,0.00,VWS V14.01,2013-04-18 07:43:00,
2013-04-18 09:45:00,57.7,46.9,29.88,WNW,292,0.0,0.0,67,0.00,,---,0.00,VWS V14.01,2013-04-18 07:45:00,
2013-04-18 09:48:00,57.6,47.1,29.88,NNW,338,3.6,3.6,68,0.00,,---,0.00,VWS V14.01,2013-04-18 07:48:00,
2013-04-18 09:50:00,57.6,47.1,29.88,NNW,338,3.6,3.6,68,0.00,,---,0.00,VWS V14.01,2013-04-18 07:50:00,
2013-04-18 09:51:00,57.6,47.9,29.88,WNW,292,0.0,2.9,70,0.00,,---,0.00,VWS V14.01,2013-04-18 07:51:00,
2013-04-18 09:52:00,57.4,47.7,29.88,NNW,338,0.0,0.0,70,0.00,,---,0.00,VWS V14.01,2013-04-18 07:52:00,
2013-04-18 09:53:00,57.2,47.1,29.88,NNW,338,0.0,0.0,69,0.00,,---,0.00,VWS V14.01,2013-04-18 07:53:00,
2013-04-18 09:55:00,57.2,47.1,29.91,West,270,0.0,0.0,69,0.00,,---,0.00,VWS V14.01,2013-04-18 07:55:00,
2013-04-18 09:58:00,57.2,47.1,29.91,NNW,338,0.0,0.0,69,0.00,,---,0.00,VWS V14.01,2013-04-18 07:58:00,
2013-04-18 10:00:00,57.0,47.0,29.91,NNW,338,0.0,0.0,69,0.00,,---,0.00,VWS V14.01,2013-04-18 08:00:00,
2013-04-18 10:02:00,57.2,47.5,29.91,WNW,292,0.0,0.0,70,0.00,,---,0.00,VWS V14.01,2013-04-18 08:02:00,
2013-04-18 10:05:00,57.2,47.5,29.91,WNW,292,0.0,0.0,70,0.00,,---,0.00,VWS V14.01,2013-04-18 08:05:00,
2013-04-18 10:06:00,57.4,48.1,29.91,WNW,292,0.0,0.0,71,0.00,,---,0.00,VWS V14.01,2013-04-18 08:06:00,
2013-04-18 10:08:00,57.2,47.9,29.91,West,270,0.0,0.0,71,0.00,,---,0.00,VWS V14.01,2013-04-18 08:08:00,
2013-04-18 10:10:00,57.2,47.9,29.91,NNW,338,0.0,0.0,71,0.00,,---,0.00,VWS V14.01,2013-04-18 08:10:00,
2013-04-18 10:11:00,57.2,47.5,29.91,WNW,292,0.0,0.0,70,0.00,,---,0.00,VWS V14.01,2013-04-18 08:11:00,
2013-04-18 10:12:00,57.2,47.5,29.91,WNW,292,0.0,0.0,70,0.00,,---,0.00,VWS V14.01,2013-04-18 08:12:00,
2013-04-18 10:16:00,57.2,47.9,29.91,WNW,292,0.0,0.0,71,0.00,,---,0.00,VWS V14.01,2013-04-18 08:16:00,
2013-04-18 10:17:00,57.2,47.9,29.91,WNW,292,0.0,0.0,71,0.00,,---,0.00,VWS V14.01,2013-04-18 08:17:00,
2013-04-18 10:18:00,57.4,48.1,29.91,WNW,292,0.0,0.0,71,0.00,,---,0.00,VWS V14.01,2013-04-18 08:18:00,
2013-04-18 10:19:00,57.4,48.1,29.91,WNW,292,0.0,0.0,71,0.00,,---,0.00,VWS V14.01,2013-04-18 08:19:00,
2013-04-18 10:23:00,57.7,48.0,29.91,WNW,292,0.0,0.0,70,0.00,,---,0.00,VWS V14.01,2013-04-18 08:23:00,
2013-04-18 10:24:00,58.1,48.4,29.91,NNW,338,0.0,0.0,70,0.00,,---,0.00,VWS V14.01,2013-04-18 08:24:00,
2013-04-18 10:27:00,57.7,47.7,29.91,WNW,292,0.0,0.0,69,0.00,,---,0.00,VWS V14.01,2013-04-18 08:27:00,
2013-04-18 10:29:00,57.7,47.7,29.91,WNW,292,0.0,0.0,69,0.00,,---,0.00,VWS V14.01,2013-04-18 08:29:00,
2013-04-18 10:30:00,57.6,46.7,29.91,West,270,0.0,0.0,67,0.00,,---,0.00,VWS V14.01,2013-04-18 08:30:00,
2013-04-18 10:31:00,57.7,46.9,29.91,WNW,292,0.0,0.0,67,0.00,,---,0.00,VWS V14.01,2013-04-18 08:31:00,
2013-04-18 10:34:00,57.7,46.5,29.91,WNW,292,0.0,0.0,66,0.00,,---,0.00,VWS V14.01,2013-04-18 08:34:00,
2013-04-18 10:35:00,57.7,46.5,29.91,WNW,292,0.0,0.0,66,0.00,,---,0.00,VWS V14.01,2013-04-18 08:35:00,
2013-04-18 10:37:00,57.9,46.2,29.91,NW,315,0.0,0.0,65,0.00,,---,0.00,VWS V14.01,2013-04-18 08:37:00,
2013-04-18 10:38:00,57.9,46.2,29.91,NW,315,0.0,0.0,65,0.00,,---,0.00,VWS V14.01,2013-04-18 08:38:00,
2013-04-18 10:39:00,57.9,46.6,29.91,NW,315,0.0,0.0,66,0.00,,---,0.00,VWS V14.01,2013-04-18 08:39:00,
2013-04-18 10:41:00,57.9,46.6,29.91,WNW,292,0.0,0.0,66,0.00,,---,0.00,VWS V14.01,2013-04-18 08:41:00,
2013-04-18 10:43:00,59.5,47.8,29.91,WNW,292,0.0,0.0,65,0.00,,---,0.00,VWS V14.01,2013-04-18 08:43:00,
2013-04-18 10:45:00,59.9,46.9,29.91,WNW,292,0.0,6.0,62,0.00,,---,0.00,VWS V14.01,2013-04-18 08:45:00,
2013-04-18 10:47:00,60.4,46.5,29.91,WNW,292,0.0,0.0,60,0.00,,---,0.00,VWS V14.01,2013-04-18 08:47:00,
2013-04-18 10:49:00,61.5,45.7,29.91,WNW,292,0.0,0.0,56,0.00,,---,0.00,VWS V14.01,2013-04-18 08:49:00,
2013-04-18 10:50:00,61.9,44.1,29.91,WNW,292,0.0,0.0,52,0.00,,---,0.00,VWS V14.01,2013-04-18 08:50:00,
2013-04-18 10:52:00,62.8,44.9,29.91,WNW,292,0.0,0.0,52,0.00,,---,0.00,VWS V14.01,2013-04-18 08:52:00,
2013-04-18 10:53:00,62.8,43.9,29.91,WNW,292,0.0,0.0,50,0.00,,---,0.00,VWS V14.01,2013-04-18 08:53:00,
2013-04-18 10:55:00,62.8,43.9,29.91,WNW,292,0.0,0.0,50,0.00,,---,0.00,VWS V14.01,2013-04-18 08:55:00,
2013-04-18 10:56:00,63.3,43.3,29.91,WNW,292,0.0,0.0,48,0.00,,---,0.00,VWS V14.01,2013-04-18 08:56:00,
2013-04-18 10:59:00,63.0,41.3,29.91,WNW,292,0.0,0.0,45,0.00,,---,0.00,VWS V14.01,2013-04-18 08:59:00,
2013-04-18 11:02:00,63.1,41.5,29.91,WNW,292,0.0,0.0,45,0.00,,---,0.00,VWS V14.01,2013-04-18 09:02:00,
2013-04-18 11:03:00,63.1,41.5,29.91,WNW,292,0.0,0.0,45,0.00,,---,0.00,VWS V14.01,2013-04-18 09:03:00,
2013-04-18 11:05:00,61.7,39.6,29.91,NNW,338,0.0,0.0,44,0.00,,---,0.00,VWS V14.01,2013-04-18 09:05:00,
2013-04-18 11:07:00,61.7,39.6,29.91,NNW,338,0.0,0.0,44,0.00,,---,0.00,VWS V14.01,2013-04-18 09:07:00,
2013-04-18 11:12:00,62.1,40.5,29.91,WSW,248,0.0,0.0,45,0.00,,---,0.00,VWS V14.01,2013-04-18 09:12:00,
2013-04-18 11:13:00,61.9,40.3,29.91,WNW,292,0.0,0.0,45,0.00,,---,0.00,VWS V14.01,2013-04-18 09:13:00,
2013-04-18 11:17:00,61.5,39.4,29.91,WNW,292,0.0,0.0,44,0.00,,---,0.00,VWS V14.01,2013-04-18 09:17:00,
2013-04-18 11:18:00,62.4,40.8,29.91,West,270,0.0,0.0,45,0.00,,---,0.00,VWS V14.01,2013-04-18 09:18:00,
2013-04-18 11:19:00,62.4,40.8,29.91,NW,315,0.0,0.0,45,0.00,,---,0.00,VWS V14.01,2013-04-18 09:19:00,
2013-04-18 11:20:00,62.4,40.8,29.91,WNW,292,0.0,0.0,45,0.00,,---,0.00,VWS V14.01,2013-04-18 09:20:00,
2013-04-18 11:21:00,62.4,40.8,29.91,WNW,292,0.0,0.0,45,0.00,,---,0.00,VWS V14.01,2013-04-18 09:21:00,
2013-04-18 11:23:00,62.4,40.8,29.91,WNW,292,0.0,0.0,45,0.00,,---,0.00,VWS V14.01,2013-04-18 09:23:00,
2013-04-18 11:24:00,62.4,40.8,29.91,WNW,292,0.0,0.0,45,0.00,,---,0.00,VWS V14.01,2013-04-18 09:24:00,
2013-04-18 11:25:00,62.4,40.8,29.91,NNW,338,0.0,0.0,45,0.00,,---,0.00,VWS V14.01,2013-04-18 09:25:00,
2013-04-18 11:27:00,62.4,40.8,29.91,NW,315,0.0,2.5,45,0.00,,---,0.00,VWS V14.01,2013-04-18 09:27:00,
2013-04-18 11:29:00,62.4,40.8,29.91,NNW,338,0.0,4.9,45,0.00,,---,0.00,VWS V14.01,2013-04-18 09:29:00,
2013-04-18 11:31:00,62.4,40.8,29.91,WNW,292,6.0,6.0,45,0.00,,---,0.00,VWS V14.01,2013-04-18 09:31:00,
2013-04-18 11:33:00,62.4,40.8,29.91,NNW,338,0.0,0.0,45,0.00,,---,0.00,VWS V14.01,2013-04-18 09:33:00,
2013-04-18 11:35:00,62.4,40.8,29.91,WNW,292,0.0,0.0,45,0.00,,---,0.00,VWS V14.01,2013-04-18 09:35:00,
2013-04-18 11:36:00,62.4,40.8,29.91,WNW,292,0.0,0.0,45,0.00,,---,0.00,VWS V14.01,2013-04-18 09:36:00,
2013-04-18 11:40:00,62.4,40.8,29.91,WNW,292,0.0,0.0,45,0.00,,---,0.00,VWS V14.01,2013-04-18 09:40:00,
2013-04-18 11:41:00,62.4,40.8,29.91,NNW,338,0.0,0.0,45,0.00,,---,0.00,VWS V14.01,2013-04-18 09:41:00,
2013-04-18 11:44:00,64.0,38.6,29.91,WNW,292,0.0,0.0,39,0.00,,---,0.00,VWS V14.01,2013-04-18 09:44:00,
2013-04-18 11:47:00,64.0,36.6,29.91,WSW,248,0.0,0.0,36,0.00,,---,0.00,VWS V14.01,2013-04-18 09:47:00,
2013-04-18 11:49:00,64.4,36.2,29.91,WSW,248,0.0,0.0,35,0.00,,---,0.00,VWS V14.01,2013-04-18 09:49:00,
2013-04-18 11:52:00,65.8,37.5,29.91,NW,315,0.0,0.0,35,0.00,,---,0.00,VWS V14.01,2013-04-18 09:52:00,
2013-04-18 11:54:00,66.0,38.3,29.91,NW,315,0.0,0.0,36,0.00,,---,0.00,VWS V14.01,2013-04-18 09:54:00,
2013-04-18 11:55:00,66.0,38.3,29.91,NW,315,0.0,0.0,36,0.00,,---,0.00,VWS V14.01,2013-04-18 09:55:00,
2013-04-18 11:58:00,65.8,36.7,29.94,NNW,338,0.0,0.0,34,0.00,,---,0.00,VWS V14.01,2013-04-18 09:58:00,
2013-04-18 12:01:00,66.0,36.9,29.94,WNW,292,0.0,0.0,34,0.00,,---,0.00,VWS V14.01,2013-04-18 10:01:00,
2013-04-18 12:02:00,65.5,36.4,29.94,WSW,248,0.0,0.0,34,0.00,,---,0.00,VWS V14.01,2013-04-18 10:02:00,
2013-04-18 12:03:00,65.3,36.2,29.94,WSW,248,0.0,0.0,34,0.00,,---,0.00,VWS V14.01,2013-04-18 10:03:00,
2013-04-18 12:06:00,64.4,35.5,29.94,WNW,292,0.0,0.0,34,0.00,,---,0.00,VWS V14.01,2013-04-18 10:06:00,
2013-04-18 12:07:00,64.2,36.0,29.94,WSW,248,0.0,0.0,35,0.00,,---,0.00,VWS V14.01,2013-04-18 10:07:00,
2013-04-18 12:09:00,64.2,36.7,29.94,North,0,0.0,0.0,36,0.00,,---,0.00,VWS V14.01,2013-04-18 10:09:00,
2013-04-18 12:10:00,64.0,36.6,29.94,WNW,292,0.0,0.0,36,0.00,,---,0.00,VWS V14.01,2013-04-18 10:10:00,
2013-04-18 12:14:00,63.5,36.1,29.94,WSW,248,0.0,0.0,36,0.00,,---,0.00,VWS V14.01,2013-04-18 10:14:00,
2013-04-18 12:15:00,63.3,35.9,29.94,SSW,202,0.0,0.0,36,0.00,,---,0.00,VWS V14.01,2013-04-18 10:15:00,
2013-04-18 12:16:00,63.0,35.6,29.94,WSW,248,0.0,0.0,36,0.00,,---,0.00,VWS V14.01,2013-04-18 10:16:00,
2013-04-18 12:19:00,62.6,36.7,29.94,WSW,248,0.0,3.4,38,0.00,,---,0.00,VWS V14.01,2013-04-18 10:19:00,
2013-04-18 12:21:00,62.6,36.7,29.94,NW,315,0.0,0.0,38,0.00,,---,0.00,VWS V14.01,2013-04-18 10:21:00,
2013-04-18 12:22:00,62.2,40.1,29.94,WSW,248,2.2,2.2,44,0.00,,---,0.00,VWS V14.01,2013-04-18 10:22:00,
2013-04-18 12:24:00,62.6,41.5,29.94,WSW,248,0.0,0.0,46,0.00,,---,0.00,VWS V14.01,2013-04-18 10:24:00,
2013-04-18 12:28:00,62.2,41.2,29.94,WSW,248,0.0,0.0,46,0.00,,---,0.00,VWS V14.01,2013-04-18 10:28:00,
2013-04-18 12:29:00,61.9,40.9,29.94,WSW,248,0.0,0.0,46,0.00,,---,0.00,VWS V14.01,2013-04-18 10:29:00,
2013-04-18 12:30:00,61.7,40.7,29.94,WSW,248,0.0,0.0,46,0.00,,---,0.00,VWS V14.01,2013-04-18 10:30:00,
2013-04-18 12:31:00,61.5,40.0,29.94,West,270,0.0,0.0,45,0.00,,---,0.00,VWS V14.01,2013-04-18 10:31:00,
2013-04-18 12:36:00,60.8,41.5,29.94,WSW,248,0.0,0.0,49,0.00,,---,0.00,VWS V14.01,2013-04-18 10:36:00,
2013-04-18 12:37:00,59.7,40.5,29.94,WSW,248,0.0,0.0,49,0.00,,---,0.00,VWS V14.01,2013-04-18 10:37:00,
2013-04-18 12:39:00,59.5,40.4,29.94,WSW,248,0.0,0.0,49,0.00,,---,0.00,VWS V14.01,2013-04-18 10:39:00,
2013-04-18 12:43:00,59.4,40.2,29.94,SSW,202,0.0,0.0,49,0.00,,---,0.00,VWS V14.01,2013-04-18 10:43:00,
2013-04-18 12:44:00,59.4,40.7,29.94,NNW,338,0.0,0.0,50,0.00,,---,0.00,VWS V14.01,2013-04-18 10:44:00,
2013-04-18 12:45:00,59.7,41.6,29.94,WSW,248,0.0,0.0,51,0.00,,---,0.00,VWS V14.01,2013-04-18 10:45:00,
2013-04-18 12:46:00,59.7,41.6,29.94,WSW,248,0.0,0.0,51,0.00,,---,0.00,VWS V14.01,2013-04-18 10:46:00,
2013-04-18 12:50:00,59.7,43.1,29.94,NW,315,0.0,0.0,54,0.00,,---,0.00,VWS V14.01,2013-04-18 10:50:00,
2013-04-18 12:51:00,59.5,42.9,29.94,WNW,292,0.0,0.0,54,0.00,,---,0.00,VWS V14.01,2013-04-18 10:51:00,
2013-04-18 12:54:00,59.9,43.2,29.94,WNW,292,0.0,0.0,54,0.00,,---,0.00,VWS V14.01,2013-04-18 10:54:00,
2013-04-18 12:57:00,60.4,43.2,29.94,WSW,248,0.0,0.0,53,0.00,,---,0.00,VWS V14.01,2013-04-18 10:57:00,
2013-04-18 13:00:00,61.9,43.1,29.94,WSW,248,0.0,0.0,50,0.00,,---,0.00,VWS V14.01,2013-04-18 11:00:00,
2013-04-18 13:02:00,61.9,41.5,29.94,WNW,292,0.0,0.0,47,0.00,,---,0.00,VWS V14.01,2013-04-18 11:02:00,
2013-04-18 13:05:00,62.8,40.6,29.94,WSW,248,0.0,0.0,44,0.00,,---,0.00,VWS V14.01,2013-04-18 11:05:00,
2013-04-18 13:06:00,63.1,40.9,29.94,WSW,248,0.0,0.0,44,0.00,,---,0.00,VWS V14.01,2013-04-18 11:06:00,
2013-04-18 13:08:00,63.1,40.9,29.94,West,270,0.0,0.0,44,0.00,,---,0.00,VWS V14.01,2013-04-18 11:08:00,
2013-04-18 13:09:00,64.4,41.4,29.94,West,270,0.0,0.0,43,0.00,,---,0.00,VWS V14.01,2013-04-18 11:09:00,
2013-04-18 13:13:00,64.9,38.8,29.94,West,270,0.0,0.0,38,0.00,,---,0.00,VWS V14.01,2013-04-18 11:13:00,
2013-04-18 13:14:00,66.0,39.7,29.94,WSW,248,0.0,0.0,38,0.00,,---,0.00,VWS V14.01,2013-04-18 11:14:00,
2013-04-18 13:16:00,66.0,39.0,29.94,WSW,248,0.0,0.0,37,0.00,,---,0.00,VWS V14.01,2013-04-18 11:16:00,
2013-04-18 13:18:00,66.2,37.0,29.94,WSW,248,0.0,0.0,34,0.00,,---,0.00,VWS V14.01,2013-04-18 11:18:00,
2013-04-18 13:20:00,66.2,37.0,29.94,WNW,292,0.0,0.0,34,0.00,,---,0.00,VWS V14.01,2013-04-18 11:20:00,
2013-04-18 13:25:00,65.5,35.6,29.94,SW,225,0.0,0.0,33,0.00,,---,0.00,VWS V14.01,2013-04-18 11:25:00,
2013-04-18 13:27:00,65.5,35.6,29.94,WSW,248,0.0,0.0,33,0.00,,---,0.00,VWS V14.01,2013-04-18 11:27:00,
2013-04-18 13:30:00,65.8,36.0,29.94,WSW,248,0.0,0.0,33,0.00,,---,0.00,VWS V14.01,2013-04-18 11:30:00,
2013-04-18 13:32:00,66.9,36.1,29.94,WSW,248,0.0,0.0,32,0.00,,---,0.00,VWS V14.01,2013-04-18 11:32:00,
2013-04-18 13:33:00,67.1,36.3,29.94,WSW,248,0.0,0.0,32,0.00,,---,0.00,VWS V14.01,2013-04-18 11:33:00,
2013-04-18 13:36:00,67.1,33.8,29.94,WSW,248,0.0,0.0,29,0.00,,---,0.00,VWS V14.01,2013-04-18 11:36:00,
2013-04-18 13:39:00,67.3,34.0,29.94,SSW,202,0.0,0.0,29,0.00,,---,0.00,VWS V14.01,2013-04-18 11:39:00,
2013-04-18 13:41:00,66.9,31.9,29.94,SW,225,0.0,0.0,27,0.00,,---,0.00,VWS V14.01,2013-04-18 11:41:00,
2013-04-18 13:42:00,66.7,31.7,29.94,SW,225,0.0,0.0,27,0.00,,---,0.00,VWS V14.01,2013-04-18 11:42:00,
2013-04-18 13:45:00,66.6,32.5,29.94,WSW,248,0.0,0.0,28,0.00,,---,0.00,VWS V14.01,2013-04-18 11:45:00,
2013-04-18 13:49:00,66.7,33.5,29.94,SW,225,0.0,0.0,29,0.00,,---,0.00,VWS V14.01,2013-04-18 11:49:00,
2013-04-18 13:50:00,66.7,33.5,29.94,SW,225,0.0,0.0,29,0.00,,---,0.00,VWS V14.01,2013-04-18 11:50:00,
2013-04-18 13:52:00,66.6,33.3,29.94,SW,225,0.0,0.0,29,0.00,,---,0.00,VWS V14.01,2013-04-18 11:52:00,
2013-04-18 13:53:00,66.7,33.5,29.94,WSW,248,0.0,0.0,29,0.00,,---,0.00,VWS V14.01,2013-04-18 11:53:00,
2013-04-18 13:54:00,66.9,34.5,29.94,WSW,248,0.0,0.0,30,0.00,,---,0.00,VWS V14.01,2013-04-18 11:54:00,
2013-04-18 13:55:00,67.1,35.5,29.94,WSW,248,0.0,0.0,31,0.00,,---,0.00,VWS V14.01,2013-04-18 11:55:00,
2013-04-18 13:57:00,66.2,33.0,29.94,SSW,202,0.0,0.0,29,0.00,,---,0.00,VWS V14.01,2013-04-18 11:57:00,
2013-04-18 13:59:00,65.5,33.3,29.94,SSW,202,0.0,0.0,30,0.00,,---,0.00,VWS V14.01,2013-04-18 11:59:00,
2013-04-18 14:00:00,65.5,34.9,29.94,SW,225,0.0,0.0,32,0.00,,---,0.00,VWS V14.01,2013-04-18 12:00:00,
2013-04-18 14:04:00,66.2,33.0,29.94,WSW,248,0.0,0.0,29,0.00,,---,0.00,VWS V14.01,2013-04-18 12:04:00,
2013-04-18 14:07:00,65.8,34.4,29.94,SSW,202,0.0,0.0,31,0.00,,---,0.00,VWS V14.01,2013-04-18 12:07:00,
2013-04-18 14:12:00,64.0,35.1,29.94,WSW,248,0.0,0.0,34,0.00,,---,0.00,VWS V14.01,2013-04-18 12:12:00,
2013-04-18 14:13:00,63.9,35.0,29.94,WSW,248,0.0,0.0,34,0.00,,---,0.00,VWS V14.01,2013-04-18 12:13:00,
2013-04-18 14:14:00,63.9,35.0,29.94,WNW,292,0.0,0.0,34,0.00,,---,0.00,VWS V14.01,2013-04-18 12:14:00,
2013-04-18 14:16:00,63.1,34.3,29.94,WSW,248,0.0,0.0,34,0.00,,---,0.00,VWS V14.01,2013-04-18 12:16:00,
2013-04-18 14:18:00,63.1,34.3,29.94,WSW,248,0.0,0.0,34,0.00,,---,0.00,VWS V14.01,2013-04-18 12:18:00,
2013-04-18 14:19:00,62.6,34.6,29.94,WSW,248,0.0,0.0,35,0.00,,---,0.00,VWS V14.01,2013-04-18 12:19:00,
2013-04-18 14:21:00,62.4,35.1,29.94,SSW,202,0.0,0.0,36,0.00,,---,0.00,VWS V14.01,2013-04-18 12:21:00,
2013-04-18 14:23:00,61.9,34.7,29.94,West,270,0.0,0.0,36,0.00,,---,0.00,VWS V14.01,2013-04-18 12:23:00,
2013-04-18 14:24:00,61.9,35.3,29.94,WSW,248,0.0,0.0,37,0.00,,---,0.00,VWS V14.01,2013-04-18 12:24:00,
2013-04-18 14:29:00,61.3,36.8,29.94,WSW,248,0.0,0.0,40,0.00,,---,0.00,VWS V14.01,2013-04-18 12:29:00,
2013-04-18 14:30:00,61.0,36.5,29.94,WSW,248,0.0,0.0,40,0.00,,---,0.00,VWS V14.01,2013-04-18 12:30:00,
2013-04-18 14:35:00,61.0,37.1,29.94,WSW,248,0.0,0.0,41,0.00,,---,0.00,VWS V14.01,2013-04-18 12:35:00,
2013-04-18 14:36:00,61.5,38.8,29.94,WSW,248,0.0,0.0,43,0.00,,---,0.00,VWS V14.01,2013-04-18 12:36:00,
2013-04-18 14:37:00,61.3,38.7,29.94,WSW,248,0.0,0.0,43,0.00,,---,0.00,VWS V14.01,2013-04-18 12:37:00,
2013-04-18 14:39:00,60.6,38.0,29.94,WSW,248,0.0,0.0,43,0.00,,---,0.00,VWS V14.01,2013-04-18 12:39:00,
2013-04-18 14:42:00,60.3,37.1,29.94,West,270,4.7,4.7,42,0.00,,---,0.00,VWS V14.01,2013-04-18 12:42:00,
2013-04-18 14:45:00,59.2,35.5,29.94,WSW,248,0.0,0.0,41,0.00,,---,0.00,VWS V14.01,2013-04-18 12:45:00,
2013-04-18 14:49:00,58.5,37.2,29.94,WSW,248,0.0,0.0,45,0.00,,---,0.00,VWS V14.01,2013-04-18 12:49:00,
2013-04-18 14:50:00,57.9,37.3,29.94,WNW,292,0.0,0.0,46,0.00,,---,0.00,VWS V14.01,2013-04-18 12:50:00,
2013-04-18 14:51:00,57.9,37.3,29.94,WNW,292,0.0,0.0,46,0.00,,---,0.00,VWS V14.01,2013-04-18 12:51:00,
2013-04-18 14:53:00,57.9,37.3,29.94,West,270,0.0,0.0,46,0.00,,---,0.00,VWS V14.01,2013-04-18 12:53:00,
2013-04-18 14:56:00,57.2,38.8,29.94,NNW,338,0.0,0.0,50,0.00,,---,0.00,VWS V14.01,2013-04-18 12:56:00,
2013-04-18 14:57:00,57.6,39.1,29.94,WNW,292,0.0,0.0,50,0.00,,---,0.00,VWS V14.01,2013-04-18 12:57:00,
2013-04-18 14:58:00,57.6,39.6,29.94,WNW,292,0.0,0.0,51,0.00,,---,0.00,VWS V14.01,2013-04-18 12:58:00,
2013-04-18 15:01:00,58.5,40.9,29.94,WNW,292,0.0,0.0,52,0.00,,---,0.00,VWS V14.01,2013-04-18 13:01:00,
2013-04-18 15:05:00,58.8,40.8,29.94,WNW,292,0.0,0.0,51,0.00,,---,0.00,VWS V14.01,2013-04-18 13:05:00,
2013-04-18 15:06:00,59.0,40.4,29.94,WNW,292,0.0,0.0,50,0.00,,---,0.00,VWS V14.01,2013-04-18 13:06:00,
2013-04-18 15:09:00,59.2,40.0,29.94,WNW,292,0.0,0.0,49,0.00,,---,0.00,VWS V14.01,2013-04-18 13:09:00,
2013-04-18 15:10:00,59.7,40.0,29.94,WNW,292,0.0,0.0,48,0.00,,---,0.00,VWS V14.01,2013-04-18 13:10:00,
2013-04-18 15:11:00,59.9,40.2,29.94,WNW,292,0.0,0.0,48,0.00,,---,0.00,VWS V14.01,2013-04-18 13:11:00,
2013-04-18 15:15:00,60.1,38.7,29.94,WSW,248,0.0,0.0,45,0.00,,---,0.00,VWS V14.01,2013-04-18 13:15:00,
2013-04-18 15:17:00,60.4,38.4,29.94,WNW,292,0.0,0.0,44,0.00,,---,0.00,VWS V14.01,2013-04-18 13:17:00,
2013-04-18 15:20:00,61.0,35.9,29.94,WSW,248,0.0,0.0,39,0.00,,---,0.00,VWS V14.01,2013-04-18 13:20:00,
2013-04-18 15:21:00,61.0,35.2,29.94,WSW,248,0.0,0.0,38,0.00,,---,0.00,VWS V14.01,2013-04-18 13:21:00,
2013-04-18 15:22:00,61.0,34.5,29.94,WSW,248,0.0,0.0,37,0.00,,---,0.00,VWS V14.01,2013-04-18 13:22:00,
2013-04-18 15:27:00,60.6,34.9,29.94,WSW,248,0.0,0.0,38,0.00,,---,0.00,VWS V14.01,2013-04-18 13:27:00,
2013-04-18 15:28:00,60.6,34.9,29.94,WNW,292,0.0,0.0,38,0.00,,---,0.00,VWS V14.01,2013-04-18 13:28:00,
2013-04-18 15:29:00,60.6,34.9,29.94,WSW,248,0.0,0.0,38,0.00,,---,0.00,VWS V14.01,2013-04-18 13:29:00,
2013-04-18 15:33:00,60.6,36.2,29.94,WSW,248,0.0,0.0,40,0.00,,---,0.00,VWS V14.01,2013-04-18 13:33:00,
2013-04-18 15:35:00,60.3,35.9,29.94,WSW,248,0.9,0.9,40,0.00,,---,0.00,VWS V14.01,2013-04-18 13:35:00,
2013-04-18 15:37:00,60.1,35.1,29.94,West,270,0.0,0.9,39,0.00,,---,0.00,VWS V14.01,2013-04-18 13:37:00,
2013-04-18 15:39:00,59.7,36.0,29.94,West,270,0.0,0.0,41,0.00,,---,0.00,VWS V14.01,2013-04-18 13:39:00,
2013-04-18 15:41:00,59.7,37.8,29.94,WSW,248,0.0,0.0,44,0.00,,---,0.00,VWS V14.01,2013-04-18 13:41:00,
2013-04-18 15:42:00,59.5,37.6,29.94,WSW,248,0.0,0.0,44,0.00,,---,0.00,VWS V14.01,2013-04-18 13:42:00,
2013-04-18 15:45:00,59.4,36.9,29.94,West,270,0.0,0.0,43,0.00,,---,0.00,VWS V14.01,2013-04-18 13:45:00,
2013-04-18 15:47:00,59.4,36.9,29.94,West,270,0.0,0.0,43,0.00,,---,0.00,VWS V14.01,2013-04-18 13:47:00,
2013-04-18 15:49:00,59.4,36.9,29.94,WNW,292,0.0,0.0,43,0.00,,---,0.00,VWS V14.01,2013-04-18 13:49:00,
2013-04-18 15:52:00,59.4,36.9,29.94,WSW,248,0.0,0.0,43,0.00,,---,0.00,VWS V14.01,2013-04-18 13:52:00,
2013-04-18 15:54:00,59.5,37.0,29.94,WSW,248,0.0,0.0,43,0.00,,---,0.00,VWS V14.01,2013-04-18 13:54:00,
2013-04-18 15:57:00,59.7,37.8,29.97,SW,225,0.0,0.0,44,0.00,,---,0.00,VWS V14.01,2013-04-18 13:57:00,
2013-04-18 15:59:00,59.7,37.8,29.97,WSW,248,0.0,0.0,44,0.00,,---,0.00,VWS V14.01,2013-04-18 13:59:00,
2013-04-18 16:00:00,60.1,38.7,29.97,WSW,248,0.0,0.0,45,0.00,,---,0.00,VWS V14.01,2013-04-18 14:00:00,
2013-04-18 16:03:00,60.1,38.7,29.97,NW,315,0.0,0.0,45,0.00,,---,0.00,VWS V14.01,2013-04-18 14:03:00,
2013-04-18 16:06:00,60.6,38.6,29.97,SW,225,0.0,0.0,44,0.00,,---,0.00,VWS V14.01,2013-04-18 14:06:00,
2013-04-18 16:07:00,60.6,38.6,29.97,WSW,248,0.9,0.9,44,0.00,,---,0.00,VWS V14.01,2013-04-18 14:07:00,
2013-04-18 16:08:00,60.4,38.4,29.97,WNW,292,0.0,0.9,44,0.00,,---,0.00,VWS V14.01,2013-04-18 14:08:00,
2013-04-18 16:09:00,60.4,38.4,29.97,WNW,292,0.0,0.0,44,0.00,,---,0.00,VWS V14.01,2013-04-18 14:09:00,
2013-04-18 16:13:00,60.6,39.2,29.97,WSW,248,0.0,0.0,45,0.00,,---,0.00,VWS V14.01,2013-04-18 14:13:00,
2013-04-18 16:16:00,61.2,39.1,29.97,West,270,0.0,0.0,44,0.00,,---,0.00,VWS V14.01,2013-04-18 14:16:00,
2013-04-18 16:17:00,61.2,39.1,29.97,WSW,248,0.0,0.9,44,0.00,,---,0.00,VWS V14.01,2013-04-18 14:17:00,
2013-04-18 16:19:00,61.2,39.1,29.97,SSW,202,0.0,0.0,44,0.00,,---,0.00,VWS V14.01,2013-04-18 14:19:00,
2013-04-18 16:20:00,61.2,38.5,29.97,WSW,248,0.0,0.0,43,0.00,,---,0.00,VWS V14.01,2013-04-18 14:20:00,
2013-04-18 16:22:00,61.3,38.7,29.97,West,270,0.0,0.0,43,0.00,,---,0.00,VWS V14.01,2013-04-18 14:22:00,
2013-04-18 16:23:00,61.9,38.0,29.97,SW,225,0.0,0.0,41,0.00,,---,0.00,VWS V14.01,2013-04-18 14:23:00,
2013-04-18 16:27:00,61.9,38.0,29.97,WNW,292,0.0,0.0,41,0.00,,---,0.00,VWS V14.01,2013-04-18 14:27:00,
2013-04-18 16:28:00,61.9,38.0,29.97,WSW,248,0.0,0.0,41,0.00,,---,0.00,VWS V14.01,2013-04-18 14:28:00,
2013-04-18 16:30:00,61.9,38.0,29.97,WSW,248,0.0,0.0,41,0.00,,---,0.00,VWS V14.01,2013-04-18 14:30:00,
2013-04-18 16:34:00,62.8,36.8,29.97,WSW,248,0.0,0.0,38,0.00,,---,0.00,VWS V14.01,2013-04-18 14:34:00,
2013-04-18 16:37:00,63.0,36.3,29.97,WNW,292,0.0,0.0,37,0.00,,---,0.00,VWS V14.01,2013-04-18 14:37:00,
2013-04-18 16:40:00,62.8,35.5,29.97,NW,315,0.0,0.0,36,0.00,,---,0.00,VWS V14.01,2013-04-18 14:40:00,
2013-04-18 16:41:00,63.0,35.6,29.97,WSW,248,0.0,0.0,36,0.00,,---,0.00,VWS V14.01,2013-04-18 14:41:00,
2013-04-18 16:45:00,63.0,35.6,29.97,WSW,248,0.0,0.0,36,0.00,,---,0.00,VWS V14.01,2013-04-18 14:45:00,
2013-04-18 16:46:00,62.8,34.8,29.97,WNW,292,0.0,0.0,35,0.00,,---,0.00,VWS V14.01,2013-04-18 14:46:00,
2013-04-18 16:48:00,62.6,34.6,29.97,WSW,248,0.0,0.0,35,0.00,,---,0.00,VWS V14.01,2013-04-18 14:48:00,
2013-04-18 16:50:00,62.6,34.6,29.97,West,270,0.0,0.0,35,0.00,,---,0.00,VWS V14.01,2013-04-18 14:50:00,
2013-04-18 16:52:00,62.6,34.6,29.97,West,270,0.0,0.0,35,0.00,,---,0.00,VWS V14.01,2013-04-18 14:52:00,
2013-04-18 16:53:00,62.6,34.6,29.97,SW,225,0.0,0.0,35,0.00,,---,0.00,VWS V14.01,2013-04-18 14:53:00,
2013-04-18 16:57:00,62.4,34.4,29.97,WSW,248,0.0,0.0,35,0.00,,---,0.00,VWS V14.01,2013-04-18 14:57:00,
2013-04-18 16:58:00,61.7,34.5,29.97,SW,225,0.0,0.0,36,0.00,,---,0.00,VWS V14.01,2013-04-18 14:58:00,
2013-04-18 16:59:00,61.3,34.2,29.97,WNW,292,0.0,0.0,36,0.00,,---,0.00,VWS V14.01,2013-04-18 14:59:00,
2013-04-18 17:00:00,61.2,34.0,29.97,WNW,292,0.0,0.0,36,0.00,,---,0.00,VWS V14.01,2013-04-18 15:00:00,
2013-04-18 17:06:00,60.4,33.4,29.97,WSW,248,0.0,0.0,36,0.00,,---,0.00,VWS V14.01,2013-04-18 15:06:00,
2013-04-18 17:09:00,60.3,33.2,29.97,WSW,248,0.0,0.0,36,0.00,,---,0.00,VWS V14.01,2013-04-18 15:09:00,
2013-04-18 17:11:00,59.7,32.7,30.00,WSW,248,0.0,0.0,36,0.00,,---,0.00,VWS V14.01,2013-04-18 15:11:00,
2013-04-18 17:14:00,59.4,33.1,30.00,WSW,248,0.0,0.0,37,0.00,,---,0.00,VWS V14.01,2013-04-18 15:14:00,
2013-04-18 17:19:00,58.8,33.3,30.00,WSW,248,0.0,0.0,38,0.00,,---,0.00,VWS V14.01,2013-04-18 15:19:00,
2013-04-18 17:21:00,58.6,33.8,30.00,West,270,0.0,0.0,39,0.00,,---,0.00,VWS V14.01,2013-04-18 15:21:00,
2013-04-18 17:23:00,58.5,33.6,30.00,WSW,248,0.0,0.0,39,0.00,,---,0.00,VWS V14.01,2013-04-18 15:23:00,
2013-04-18 17:24:00,58.5,33.6,30.00,WSW,248,0.0,0.0,39,0.00,,---,0.00,VWS V14.01,2013-04-18 15:24:00,
2013-04-18 17:26:00,58.1,33.3,30.00,WSW,248,0.0,0.0,39,0.00,,---,0.00,VWS V14.01,2013-04-18 15:26:00,
2013-04-18 17:29:00,57.9,33.1,30.00,SW,225,0.0,0.0,39,0.00,,---,0.00,VWS V14.01,2013-04-18 15:29:00,
2013-04-18 17:31:00,57.7,33.0,30.00,SW,225,0.0,0.0,39,0.00,,---,0.00,VWS V14.01,2013-04-18 15:31:00,
2013-04-18 17:33:00,57.7,33.0,30.00,WSW,248,0.0,0.0,39,0.00,,---,0.00,VWS V14.01,2013-04-18 15:33:00,
2013-04-18 17:34:00,57.6,32.8,30.00,WSW,248,0.0,0.0,39,0.00,,---,0.00,VWS V14.01,2013-04-18 15:34:00,
2013-04-18 17:35:00,57.6,32.8,30.00,WSW,248,0.0,0.0,39,0.00,,---,0.00,VWS V14.01,2013-04-18 15:35:00,
2013-04-18 17:37:00,57.6,33.4,30.00,WSW,248,0.0,0.0,40,0.00,,---,0.00,VWS V14.01,2013-04-18 15:37:00,
2013-04-18 17:39:00,57.4,33.3,30.00,WSW,248,0.0,0.0,40,0.00,,---,0.00,VWS V14.01,2013-04-18 15:39:00,
2013-04-18 17:40:00,57.4,33.9,30.00,WNW,292,0.0,0.0,41,0.00,,---,0.00,VWS V14.01,2013-04-18 15:40:00,
2013-04-18 17:41:00,57.4,33.9,30.00,WSW,248,0.0,0.0,41,0.00,,---,0.00,VWS V14.01,2013-04-18 15:41:00,
2013-04-18 17:45:00,57.2,34.3,30.00,WSW,248,0.0,0.0,42,0.00,,---,0.00,VWS V14.01,2013-04-18 15:45:00,
2013-04-18 17:46:00,57.2,34.3,30.00,WSW,248,0.0,0.0,42,0.00,,---,0.00,VWS V14.01,2013-04-18 15:46:00,
2013-04-18 17:48:00,57.2,34.3,30.00,WSW,248,0.0,0.0,42,0.00,,---,0.00,VWS V14.01,2013-04-18 15:48:00,
2013-04-18 17:51:00,57.0,34.8,30.00,WSW,248,0.0,0.0,43,0.00,,---,0.00,VWS V14.01,2013-04-18 15:51:00,
2013-04-18 17:52:00,57.0,34.8,30.00,WSW,248,0.0,0.0,43,0.00,,---,0.00,VWS V14.01,2013-04-18 15:52:00,
2013-04-18 17:53:00,57.0,35.3,30.00,WSW,248,0.0,0.0,44,0.00,,---,0.00,VWS V14.01,2013-04-18 15:53:00,
2013-04-18 17:55:00,56.8,35.2,30.00,WSW,248,0.0,0.0,44,0.00,,---,0.00,VWS V14.01,2013-04-18 15:55:00,
2013-04-18 17:56:00,56.8,35.2,30.00,WSW,248,0.0,0.0,44,0.00,,---,0.00,VWS V14.01,2013-04-18 15:56:00,
2013-04-18 17:58:00,56.8,35.7,30.00,WSW,248,0.0,0.0,45,0.00,,---,0.00,VWS V14.01,2013-04-18 15:58:00,
2013-04-18 17:59:00,56.7,35.0,30.00,WSW,248,0.0,0.0,44,0.00,,---,0.00,VWS V14.01,2013-04-18 15:59:00,
2013-04-18 18:00:00,56.7,35.0,30.00,West,270,0.0,0.0,44,0.00,,---,0.00,VWS V14.01,2013-04-18 16:00:00,
2013-04-18 18:01:00,56.7,35.6,30.00,WSW,248,0.0,0.0,45,0.00,,---,0.00,VWS V14.01,2013-04-18 16:01:00,
2013-04-18 18:05:00,56.7,36.1,30.00,WSW,248,0.0,0.0,46,0.00,,---,0.00,VWS V14.01,2013-04-18 16:05:00,
2013-04-18 18:08:00,56.5,35.4,30.00,WSW,248,0.0,0.0,45,0.00,,---,0.00,VWS V14.01,2013-04-18 16:08:00,
2013-04-18 18:09:00,56.5,36.0,30.00,WSW,248,0.0,0.0,46,0.00,,---,0.00,VWS V14.01,2013-04-18 16:09:00,
2013-04-18 18:10:00,56.5,36.0,30.00,WSW,248,0.0,0.0,46,0.00,,---,0.00,VWS V14.01,2013-04-18 16:10:00,
2013-04-18 18:13:00,56.3,35.8,30.00,WSW,248,0.0,0.0,46,0.00,,---,0.00,VWS V14.01,2013-04-18 16:13:00,
2013-04-18 18:14:00,56.3,35.8,30.00,West,270,0.0,0.0,46,0.00,,---,0.00,VWS V14.01,2013-04-18 16:14:00,
2013-04-18 18:17:00,56.3,35.8,30.00,WSW,248,0.0,0.0,46,0.00,,---,0.00,VWS V14.01,2013-04-18 16:17:00,
2013-04-18 18:18:00,56.1,35.6,30.00,West,270,0.0,0.0,46,0.00,,---,0.00,VWS V14.01,2013-04-18 16:18:00,
2013-04-18 18:20:00,56.1,35.6,30.00,WSW,248,0.0,0.0,46,0.00,,---,0.00,VWS V14.01,2013-04-18 16:20:00,
2013-04-18 18:21:00,56.1,35.6,30.00,WSW,248,0.0,0.0,46,0.00,,---,0.00,VWS V14.01,2013-04-18 16:21:00,
2013-04-18 18:25:00,56.1,35.6,30.00,West,270,0.0,0.0,46,0.00,,---,0.00,VWS V14.01,2013-04-18 16:25:00,
2013-04-18 18:26:00,56.1,35.6,30.00,West,270,0.0,0.0,46,0.00,,---,0.00,VWS V14.01,2013-04-18 16:26:00,
2013-04-18 18:27:00,56.1,35.6,30.00,WSW,248,0.0,0.0,46,0.00,,---,0.00,VWS V14.01,2013-04-18 16:27:00,
2013-04-18 18:30:00,56.1,35.6,30.00,West,270,0.0,0.0,46,0.00,,---,0.00,VWS V14.01,2013-04-18 16:30:00,
2013-04-18 18:32:00,55.9,35.5,30.00,WSW,248,0.0,0.0,46,0.00,,---,0.00,VWS V14.01,2013-04-18 16:32:00,
2013-04-18 18:33:00,55.9,36.0,30.00,WNW,292,0.0,0.0,47,0.00,,---,0.00,VWS V14.01,2013-04-18 16:33:00,
2013-04-18 18:34:00,56.1,36.2,30.00,WSW,248,0.0,0.0,47,0.00,,---,0.00,VWS V14.01,2013-04-18 16:34:00,
2013-04-18 18:38:00,56.1,36.2,30.00,WSW,248,0.0,0.0,47,0.00,,---,0.00,VWS V14.01,2013-04-18 16:38:00,
2013-04-18 18:40:00,56.1,36.2,30.00,WNW,292,0.0,0.0,47,0.00,,---,0.00,VWS V14.01,2013-04-18 16:40:00,
2013-04-18 18:42:00,56.1,36.2,30.00,WSW,248,0.0,0.0,47,0.00,,---,0.00,VWS V14.01,2013-04-18 16:42:00,
2013-04-18 18:44:00,55.9,35.5,30.00,NW,315,0.0,0.0,46,0.00,,---,0.00,VWS V14.01,2013-04-18 16:44:00,
2013-04-18 18:46:00,55.9,35.5,30.00,WSW,248,0.0,0.0,46,0.00,,---,0.00,VWS V14.01,2013-04-18 16:46:00,
2013-04-18 18:49:00,55.9,35.5,30.00,WNW,292,0.0,0.0,46,0.00,,---,0.00,VWS V14.01,2013-04-18 16:49:00,
2013-04-18 18:51:00,55.9,35.5,30.00,WSW,248,0.0,0.0,46,0.00,,---,0.00,VWS V14.01,2013-04-18 16:51:00,
2013-04-18 18:53:00,55.9,35.5,30.00,NNW,338,0.0,0.0,46,0.00,,---,0.00,VWS V14.01,2013-04-18 16:53:00,
2013-04-18 18:54:00,55.9,36.0,30.00,NNW,338,0.0,0.0,47,0.00,,---,0.00,VWS V14.01,2013-04-18 16:54:00,
2013-04-18 18:55:00,55.8,35.8,30.00,WNW,292,0.0,0.0,47,0.00,,---,0.00,VWS V14.01,2013-04-18 16:55:00,
2013-04-18 18:56:00,55.8,35.8,30.00,WNW,292,0.0,0.0,47,0.00,,---,0.00,VWS V14.01,2013-04-18 16:56:00,
2013-04-18 18:57:00,55.8,35.8,30.00,WNW,292,0.0,0.0,47,0.00,,---,0.00,VWS V14.01,2013-04-18 16:57:00,
2013-04-18 18:59:00,55.8,35.8,30.00,WNW,292,0.0,0.0,47,0.00,,---,0.00,VWS V14.01,2013-04-18 16:59:00,
2013-04-18 19:01:00,55.8,35.8,30.00,WNW,292,0.0,0.0,47,0.00,,---,0.00,VWS V14.01,2013-04-18 17:01:00,
2013-04-18 19:02:00,55.8,35.8,30.00,WNW,292,0.0,0.0,47,0.00,,---,0.00,VWS V14.01,2013-04-18 17:02:00,
2013-04-18 19:04:00,55.6,35.7,30.00,NNW,338,0.0,0.0,47,0.00,,---,0.00,VWS V14.01,2013-04-18 17:04:00,
2013-04-18 19:05:00,55.6,35.7,30.00,WSW,248,0.0,0.0,47,0.00,,---,0.00,VWS V14.01,2013-04-18 17:05:00,
2013-04-18 19:07:00,55.6,35.7,30.00,WSW,248,0.0,0.0,47,0.00,,---,0.00,VWS V14.01,2013-04-18 17:07:00,
2013-04-18 19:08:00,55.6,35.7,30.00,West,270,0.0,0.0,47,0.00,,---,0.00,VWS V14.01,2013-04-18 17:08:00,
2013-04-18 19:09:00,55.6,35.7,30.00,WSW,248,0.0,0.0,47,0.00,,---,0.00,VWS V14.01,2013-04-18 17:09:00,
2013-04-18 19:11:00,55.6,35.7,30.03,WSW,248,0.0,0.0,47,0.00,,---,0.00,VWS V14.01,2013-04-18 17:11:00,
2013-04-18 19:13:00,55.6,35.7,30.03,WNW,292,0.0,0.0,47,0.00,,---,0.00,VWS V14.01,2013-04-18 17:13:00,
2013-04-18 19:16:00,55.4,35.5,30.03,WNW,292,0.0,0.0,47,0.00,,---,0.00,VWS V14.01,2013-04-18 17:16:00,
2013-04-18 19:18:00,55.4,35.5,30.03,NNW,338,0.0,0.0,47,0.00,,---,0.00,VWS V14.01,2013-04-18 17:18:00,
2013-04-18 19:19:00,55.2,35.4,30.03,NW,315,0.0,0.0,47,0.00,,---,0.00,VWS V14.01,2013-04-18 17:19:00,
2013-04-18 19:20:00,55.2,35.4,30.03,WNW,292,0.0,0.0,47,0.00,,---,0.00,VWS V14.01,2013-04-18 17:20:00,
2013-04-18 19:24:00,55.0,35.7,30.03,WNW,292,0.0,0.0,48,0.00,,---,0.00,VWS V14.01,2013-04-18 17:24:00,
2013-04-18 19:26:00,55.0,35.7,30.03,WNW,292,0.0,0.0,48,0.00,,---,0.00,VWS V14.01,2013-04-18 17:26:00,
2013-04-18 19:27:00,55.0,35.7,30.03,NW,315,0.0,0.0,48,0.00,,---,0.00,VWS V14.01,2013-04-18 17:27:00,
2013-04-18 19:31:00,54.9,35.6,30.03,NW,315,0.0,0.0,48,0.00,,---,0.00,VWS V14.01,2013-04-18 17:31:00,
2013-04-18 19:35:00,54.9,35.6,30.03,WSW,248,0.0,0.0,48,0.00,,---,0.00,VWS V14.01,2013-04-18 17:35:00,
2013-04-18 19:38:00,54.9,35.6,30.03,West,270,0.0,0.0,48,0.00,,---,0.00,VWS V14.01,2013-04-18 17:38:00,
2013-04-18 19:39:00,54.9,35.6,30.03,WNW,292,0.0,0.0,48,0.00,,---,0.00,VWS V14.01,2013-04-18 17:39:00,
2013-04-18 19:42:00,54.9,35.6,30.03,WNW,292,0.0,0.0,48,0.00,,---,0.00,VWS V14.01,2013-04-18 17:42:00,
2013-04-18 19:43:00,54.7,35.9,30.03,WNW,292,0.0,0.0,49,0.00,,---,0.00,VWS V14.01,2013-04-18 17:43:00,
2013-04-18 19:44:00,54.7,35.9,30.03,WNW,292,0.0,0.0,49,0.00,,---,0.00,VWS V14.01,2013-04-18 17:44:00,
2013-04-18 19:46:00,54.5,35.8,30.03,NNW,338,0.0,0.0,49,0.00,,---,0.00,VWS V14.01,2013-04-18 17:46:00,
2013-04-18 19:47:00,54.5,35.8,30.03,WNW,292,0.0,0.0,49,0.00,,---,0.00,VWS V14.01,2013-04-18 17:47:00,
2013-04-18 19:48:00,54.5,35.8,30.03,WNW,292,0.0,0.0,49,0.00,,---,0.00,VWS V14.01,2013-04-18 17:48:00,
2013-04-18 19:50:00,54.5,35.8,30.03,WNW,292,0.0,0.0,49,0.00,,---,0.00,VWS V14.01,2013-04-18 17:50:00,
2013-04-18 19:52:00,54.5,35.8,30.03,West,270,0.0,0.0,49,0.00,,---,0.00,VWS V14.01,2013-04-18 17:52:00,
2013-04-18 19:54:00,54.5,35.8,30.03,NW,315,0.0,0.0,49,0.00,,---,0.00,VWS V14.01,2013-04-18 17:54:00,
2013-04-18 19:56:00,54.5,35.8,30.03,West,270,0.0,0.0,49,0.00,,---,0.00,VWS V14.01,2013-04-18 17:56:00,
2013-04-18 19:59:00,54.5,35.8,30.03,NW,315,0.0,0.0,49,0.00,,---,0.00,VWS V14.01,2013-04-18 17:59:00,
2013-04-18 20:02:00,54.5,35.8,30.03,NNW,338,0.0,0.0,49,0.00,,---,0.00,VWS V14.01,2013-04-18 18:02:00,
2013-04-18 20:04:00,54.7,35.9,30.03,WSW,248,0.0,0.0,49,0.00,,---,0.00,VWS V14.01,2013-04-18 18:04:00,
2013-04-18 20:05:00,54.7,35.9,30.03,NW,315,0.0,0.0,49,0.00,,---,0.00,VWS V14.01,2013-04-18 18:05:00,
2013-04-18 20:07:00,54.7,35.9,30.03,WSW,248,0.0,0.0,49,0.00,,---,0.00,VWS V14.01,2013-04-18 18:07:00,
2013-04-18 20:08:00,54.7,35.9,30.03,West,270,0.0,0.0,49,0.00,,---,0.00,VWS V14.01,2013-04-18 18:08:00,
2013-04-18 20:10:00,54.7,35.9,30.06,West,270,0.0,0.0,49,0.00,,---,0.00,VWS V14.01,2013-04-18 18:10:00,
2013-04-18 20:12:00,54.7,35.9,30.06,WSW,248,0.0,0.0,49,0.00,,---,0.00,VWS V14.01,2013-04-18 18:12:00,
2013-04-18 20:14:00,54.7,36.4,30.06,West,270,0.0,0.0,50,0.00,,---,0.00,VWS V14.01,2013-04-18 18:14:00,
2013-04-18 20:15:00,54.9,36.6,30.06,WSW,248,0.0,0.0,50,0.00,,---,0.00,VWS V14.01,2013-04-18 18:15:00,
2013-04-18 20:16:00,54.9,36.6,30.06,WSW,248,0.0,0.0,50,0.00,,---,0.00,VWS V14.01,2013-04-18 18:16:00,
2013-04-18 20:18:00,55.0,36.8,30.06,WNW,292,0.0,0.0,50,0.00,,---,0.00,VWS V14.01,2013-04-18 18:18:00,
2013-04-18 20:22:00,55.0,36.8,30.06,WSW,248,0.0,0.0,50,0.00,,---,0.00,VWS V14.01,2013-04-18 18:22:00,
2013-04-18 20:23:00,55.0,36.8,30.06,West,270,0.0,0.0,50,0.00,,---,0.00,VWS V14.01,2013-04-18 18:23:00,
2013-04-18 20:27:00,55.2,36.4,30.03,WSW,248,0.0,0.0,49,0.00,,---,0.00,VWS V14.01,2013-04-18 18:27:00,
2013-04-18 20:29:00,55.2,36.4,30.03,West,270,0.0,0.0,49,0.00,,---,0.00,VWS V14.01,2013-04-18 18:29:00,
2013-04-18 20:30:00,55.2,36.4,30.03,West,270,0.0,0.0,49,0.00,,---,0.00,VWS V14.01,2013-04-18 18:30:00,
2013-04-18 20:31:00,55.2,36.4,30.03,WNW,292,0.0,0.0,49,0.00,,---,0.00,VWS V14.01,2013-04-18 18:31:00,
2013-04-18 20:36:00,55.2,36.4,30.03,WSW,248,0.0,0.0,49,0.00,,---,0.00,VWS V14.01,2013-04-18 18:36:00,
2013-04-18 20:38:00,55.2,36.4,30.03,WSW,248,0.0,0.0,49,0.00,,---,0.00,VWS V14.01,2013-04-18 18:38:00,
2013-04-18 20:41:00,55.2,36.4,30.03,WNW,292,0.0,0.0,49,0.00,,---,0.00,VWS V14.01,2013-04-18 18:41:00,
2013-04-18 20:42:00,55.2,36.4,30.03,WNW,292,0.0,0.0,49,0.00,,---,0.00,VWS V14.01,2013-04-18 18:42:00,
2013-04-18 20:45:00,55.2,36.4,30.03,WSW,248,0.0,0.0,49,0.00,,---,0.00,VWS V14.01,2013-04-18 18:45:00,
2013-04-18 20:46:00,55.2,36.4,30.03,WSW,248,0.0,0.0,49,0.00,,---,0.00,VWS V14.01,2013-04-18 18:46:00,
2013-04-18 20:47:00,55.2,36.4,30.03,WSW,248,0.0,0.0,49,0.00,,---,0.00,VWS V14.01,2013-04-18 18:47:00,
2013-04-18 20:51:00,55.2,36.4,30.03,WNW,292,0.0,0.0,49,0.00,,---,0.00,VWS V14.01,2013-04-18 18:51:00,
2013-04-18 20:52:00,55.2,36.4,30.03,WNW,292,0.0,0.0,49,0.00,,---,0.00,VWS V14.01,2013-04-18 18:52:00,
2013-04-18 20:54:00,55.2,36.4,30.03,WNW,292,0.0,0.0,49,0.00,,---,0.00,VWS V14.01,2013-04-18 18:54:00,
2013-04-18 20:56:00,55.2,36.4,30.03,WNW,292,0.0,0.0,49,0.00,,---,0.00,VWS V14.01,2013-04-18 18:56:00,
2013-04-18 20:57:00,55.2,36.4,30.03,WSW,248,0.0,0.0,49,0.00,,---,0.00,VWS V14.01,2013-04-18 18:57:00,
2013-04-18 20:58:00,55.2,36.4,30.03,WSW,248,0.0,0.0,49,0.00,,---,0.00,VWS V14.01,2013-04-18 18:58:00,
2013-04-18 20:59:00,55.2,36.4,30.03,WSW,248,0.0,0.0,49,0.00,,---,0.00,VWS V14.01,2013-04-18 18:59:00,
2013-04-18 21:03:00,55.2,36.9,30.03,WSW,248,0.0,0.0,50,0.00,,---,0.00,VWS V14.01,2013-04-18 19:03:00,
2013-04-18 21:05:00,55.0,36.8,30.03,WNW,292,0.0,0.0,50,0.00,,---,0.00,VWS V14.01,2013-04-18 19:05:00,
2013-04-18 21:06:00,55.0,36.8,30.03,WSW,248,0.0,0.0,50,0.00,,---,0.00,VWS V14.01,2013-04-18 19:06:00,
2013-04-18 21:09:00,55.0,36.8,30.03,West,270,0.0,0.0,50,0.00,,---,0.00,VWS V14.01,2013-04-18 19:09:00,
2013-04-18 21:10:00,55.0,36.8,30.03,West,270,0.0,0.0,50,0.00,,---,0.00,VWS V14.01,2013-04-18 19:10:00,
2013-04-18 21:11:00,55.0,36.8,30.03,West,270,0.0,0.0,50,0.00,,---,0.00,VWS V14.01,2013-04-18 19:11:00,
2013-04-18 21:12:00,55.0,36.8,30.03,West,270,0.0,0.0,50,0.00,,---,0.00,VWS V14.01,2013-04-18 19:12:00,
2013-04-18 21:14:00,55.0,36.8,30.03,West,270,0.0,0.0,50,0.00,,---,0.00,VWS V14.01,2013-04-18 19:14:00,
2013-04-18 21:15:00,55.0,36.8,30.03,West,270,0.0,0.0,50,0.00,,---,0.00,VWS V14.01,2013-04-18 19:15:00,
2013-04-18 21:19:00,55.0,36.8,30.03,WSW,248,0.0,0.0,50,0.00,,---,0.00,VWS V14.01,2013-04-18 19:19:00,
2013-04-18 21:20:00,55.0,36.8,30.03,WNW,292,0.0,0.0,50,0.00,,---,0.00,VWS V14.01,2013-04-18 19:20:00,
2013-04-18 21:21:00,55.0,36.8,30.03,West,270,0.0,0.0,50,0.00,,---,0.00,VWS V14.01,2013-04-18 19:21:00,
2013-04-18 21:23:00,55.0,36.8,30.03,WNW,292,0.0,0.0,50,0.00,,---,0.00,VWS V14.01,2013-04-18 19:23:00,
2013-04-18 21:27:00,55.0,36.8,30.06,WNW,292,0.0,0.0,50,0.00,,---,0.00,VWS V14.01,2013-04-18 19:27:00,
2013-04-18 21:29:00,55.0,37.3,30.06,WSW,248,0.0,0.0,51,0.00,,---,0.00,VWS V14.01,2013-04-18 19:29:00,
2013-04-18 21:31:00,55.0,37.3,30.06,West,270,0.0,0.0,51,0.00,,---,0.00,VWS V14.01,2013-04-18 19:31:00,
2013-04-18 21:32:00,55.0,37.3,30.06,WSW,248,0.0,0.0,51,0.00,,---,0.00,VWS V14.01,2013-04-18 19:32:00,
2013-04-18 21:33:00,55.0,37.3,30.06,WSW,248,0.0,0.0,51,0.00,,---,0.00,VWS V14.01,2013-04-18 19:33:00,
2013-04-18 21:37:00,54.9,37.1,30.06,West,270,0.0,0.0,51,0.00,,---,0.00,VWS V14.01,2013-04-18 19:37:00,
2013-04-18 21:38:00,54.9,36.6,30.06,WNW,292,0.0,0.0,50,0.00,,---,0.00,VWS V14.01,2013-04-18 19:38:00,
2013-04-18 21:39:00,54.7,36.4,30.06,WNW,292,0.0,0.0,50,0.00,,---,0.00,VWS V14.01,2013-04-18 19:39:00,
2013-04-18 21:41:00,54.7,36.4,30.06,West,270,0.0,0.0,50,0.00,,---,0.00,VWS V14.01,2013-04-18 19:41:00,
2013-04-18 21:43:00,54.5,36.3,30.06,WNW,292,0.0,0.0,50,0.00,,---,0.00,VWS V14.01,2013-04-18 19:43:00,
2013-04-18 21:46:00,54.5,36.3,30.06,WNW,292,0.0,0.0,50,0.00,,---,0.00,VWS V14.01,2013-04-18 19:46:00,
2013-04-18 21:48:00,54.3,36.1,30.06,NNW,338,0.0,0.0,50,0.00,,---,0.00,VWS V14.01,2013-04-18 19:48:00,
2013-04-18 21:49:00,54.3,36.1,30.06,WNW,292,0.0,0.0,50,0.00,,---,0.00,VWS V14.01,2013-04-18 19:49:00,
2013-04-18 21:50:00,54.1,35.9,30.06,WNW,292,0.0,0.0,50,0.00,,---,0.00,VWS V14.01,2013-04-18 19:50:00,
2013-04-18 21:51:00,54.1,35.9,30.06,WNW,292,0.0,0.0,50,0.00,,---,0.00,VWS V14.01,2013-04-18 19:51:00,
2013-04-18 21:55:00,54.0,36.3,30.06,West,270,0.0,0.0,51,0.00,,---,0.00,VWS V14.01,2013-04-18 19:55:00,
2013-04-18 21:57:00,54.0,36.3,30.06,NNW,338,0.0,0.0,51,0.00,,---,0.00,VWS V14.01,2013-04-18 19:57:00,
2013-04-18 21:58:00,54.1,36.4,30.06,WNW,292,0.0,0.0,51,0.00,,---,0.00,VWS V14.01,2013-04-18 19:58:00,
2013-04-18 21:59:00,54.0,36.3,30.06,NW,315,0.0,0.0,51,0.00,,---,0.00,VWS V14.01,2013-04-18 19:59:00,
2013-04-18 22:01:00,54.1,36.9,30.06,WNW,292,0.0,0.0,52,0.00,,---,0.00,VWS V14.01,2013-04-18 20:01:00,
2013-04-18 22:03:00,54.1,36.9,30.06,West,270,0.0,0.0,52,0.00,,---,0.00,VWS V14.01,2013-04-18 20:03:00,
2013-04-18 22:08:00,54.0,36.8,30.06,WNW,292,0.0,0.0,52,0.00,,---,0.00,VWS V14.01,2013-04-18 20:08:00,
2013-04-18 22:09:00,54.0,36.8,30.06,WNW,292,0.0,0.0,52,0.00,,---,0.00,VWS V14.01,2013-04-18 20:09:00,
2013-04-18 22:10:00,54.0,36.8,30.06,WNW,292,0.0,0.0,52,0.00,,---,0.00,VWS V14.01,2013-04-18 20:10:00,
2013-04-18 22:15:00,53.6,36.4,30.06,WNW,292,0.0,0.0,52,0.00,,---,0.00,VWS V14.01,2013-04-18 20:15:00,
2013-04-18 22:16:00,53.4,36.7,30.06,WNW,292,0.0,0.0,53,0.00,,---,0.00,VWS V14.01,2013-04-18 20:16:00,
2013-04-18 22:21:00,53.2,36.6,30.06,WNW,292,0.0,0.0,53,0.00,,---,0.00,VWS V14.01,2013-04-18 20:21:00,
2013-04-18 22:22:00,53.2,37.0,30.06,WNW,292,0.0,0.0,54,0.00,,---,0.00,VWS V14.01,2013-04-18 20:22:00,
2013-04-18 22:25:00,53.4,37.7,30.06,NW,315,0.0,0.0,55,0.00,,---,0.00,VWS V14.01,2013-04-18 20:25:00,
2013-04-18 22:29:00,53.6,38.3,30.06,NW,315,0.0,0.0,56,0.00,,---,0.00,VWS V14.01,2013-04-18 20:29:00,
2013-04-18 22:30:00,53.6,38.3,30.06,WNW,292,0.0,0.0,56,0.00,,---,0.00,VWS V14.01,2013-04-18 20:30:00,
2013-04-18 22:31:00,53.6,38.3,30.06,NW,315,0.0,0.0,56,0.00,,---,0.00,VWS V14.01,2013-04-18 20:31:00,
2013-04-18 22:33:00,53.8,38.9,30.06,West,270,0.0,0.0,57,0.00,,---,0.00,VWS V14.01,2013-04-18 20:33:00,
2013-04-18 22:35:00,53.8,38.9,30.06,NNW,338,0.0,0.0,57,0.00,,---,0.00,VWS V14.01,2013-04-18 20:35:00,
2013-04-18 22:36:00,53.8,38.9,30.06,NNW,338,0.0,0.0,57,0.00,,---,0.00,VWS V14.01,2013-04-18 20:36:00,
2013-04-18 22:38:00,54.0,39.1,30.06,WNW,292,0.0,0.0,57,0.00,,---,0.00,VWS V14.01,2013-04-18 20:38:00,
2013-04-18 22:41:00,54.0,39.1,30.06,West,270,0.0,0.0,57,0.00,,---,0.00,VWS V14.01,2013-04-18 20:41:00,
2013-04-18 22:43:00,54.0,39.1,30.06,WNW,292,0.0,0.0,57,0.00,,---,0.00,VWS V14.01,2013-04-18 20:43:00,
2013-04-18 22:47:00,54.0,39.1,30.06,WNW,292,0.0,0.0,57,0.00,,---,0.00,VWS V14.01,2013-04-18 20:47:00,
2013-04-18 22:49:00,54.0,39.1,30.06,NNW,338,0.0,0.0,57,0.00,,---,0.00,VWS V14.01,2013-04-18 20:49:00,
2013-04-18 22:52:00,54.0,39.1,30.06,WNW,292,0.0,0.0,57,0.00,,---,0.00,VWS V14.01,2013-04-18 20:52:00,
2013-04-18 22:53:00,54.1,39.3,30.06,NW,315,0.0,0.0,57,0.00,,---,0.00,VWS V14.01,2013-04-18 20:53:00,
2013-04-18 22:55:00,54.1,39.3,30.06,WNW,292,0.0,0.0,57,0.00,,---,0.00,VWS V14.01,2013-04-18 20:55:00,
2013-04-18 22:56:00,54.1,39.3,30.06,WNW,292,0.0,0.0,57,0.00,,---,0.00,VWS V14.01,2013-04-18 20:56:00,
2013-04-18 22:57:00,54.1,39.3,30.06,NNW,338,0.0,0.0,57,0.00,,---,0.00,VWS V14.01,2013-04-18 20:57:00,
2013-04-18 23:00:00,54.1,39.3,30.06,WNW,292,0.0,0.0,57,0.00,,---,0.00,VWS V14.01,2013-04-18 21:00:00,
2013-04-18 23:02:00,54.1,39.3,30.06,NW,315,0.0,0.0,57,0.00,,---,0.00,VWS V14.01,2013-04-18 21:02:00,
2013-04-18 23:03:00,54.1,39.3,30.06,WNW,292,0.0,0.0,57,0.00,,---,0.00,VWS V14.01,2013-04-18 21:03:00,
2013-04-18 23:07:00,54.3,39.4,30.06,WNW,292,0.0,0.0,57,0.00,,---,0.00,VWS V14.01,2013-04-18 21:07:00,
2013-04-18 23:08:00,54.3,39.0,30.06,WNW,292,0.0,0.0,56,0.00,,---,0.00,VWS V14.01,2013-04-18 21:08:00,
2013-04-18 23:09:00,54.3,39.0,30.06,WNW,292,0.0,0.0,56,0.00,,---,0.00,VWS V14.01,2013-04-18 21:09:00,
2013-04-18 23:13:00,54.3,39.0,30.06,WNW,292,0.0,0.0,56,0.00,,---,0.00,VWS V14.01,2013-04-18 21:13:00,
2013-04-18 23:16:00,54.3,39.0,30.06,NW,315,0.0,0.0,56,0.00,,---,0.00,VWS V14.01,2013-04-18 21:16:00,
2013-04-18 23:17:00,54.1,38.8,30.06,WNW,292,0.0,0.0,56,0.00,,---,0.00,VWS V14.01,2013-04-18 21:17:00,
2013-04-18 23:21:00,54.1,38.8,30.06,WNW,292,0.0,0.0,56,0.00,,---,0.00,VWS V14.01,2013-04-18 21:21:00,
2013-04-18 23:22:00,54.1,38.8,30.06,NNW,338,0.0,0.0,56,0.00,,---,0.00,VWS V14.01,2013-04-18 21:22:00,
2013-04-18 23:24:00,54.1,38.8,30.06,NNW,338,0.0,0.0,56,0.00,,---,0.00,VWS V14.01,2013-04-18 21:24:00,
2013-04-18 23:26:00,54.1,38.3,30.06,WNW,292,0.0,0.0,55,0.00,,---,0.00,VWS V14.01,2013-04-18 21:26:00,
2013-04-18 23:27:00,54.1,38.3,30.06,WNW,292,0.0,0.0,55,0.00,,---,0.00,VWS V14.01,2013-04-18 21:27:00,
2013-04-18 23:28:00,54.1,38.8,30.06,WNW,292,0.0,0.0,56,0.00,,---,0.00,VWS V14.01,2013-04-18 21:28:00,
2013-04-18 23:30:00,54.1,38.3,30.06,WNW,292,0.0,0.0,55,0.00,,---,0.00,VWS V14.01,2013-04-18 21:30:00,
2013-04-18 23:31:00,54.1,38.3,30.06,West,270,0.0,0.0,55,0.00,,---,0.00,VWS V14.01,2013-04-18 21:31:00,
2013-04-18 23:32:00,54.1,38.3,30.06,WSW,248,0.0,0.0,55,0.00,,---,0.00,VWS V14.01,2013-04-18 21:32:00,
2013-04-18 23:35:00,54.1,38.3,30.06,WNW,292,0.0,0.0,55,0.00,,---,0.00,VWS V14.01,2013-04-18 21:35:00,
2013-04-18 23:36:00,54.1,38.3,30.06,WNW,292,0.0,0.0,55,0.00,,---,0.00,VWS V14.01,2013-04-18 21:36:00,
2013-04-18 23:37:00,54.1,38.3,30.06,NNW,338,0.0,0.0,55,0.00,,---,0.00,VWS V14.01,2013-04-18 21:37:00,
2013-04-18 23:38:00,54.1,38.3,30.06,WNW,292,0.0,0.0,55,0.00,,---,0.00,VWS V14.01,2013-04-18 21:38:00,
2013-04-18 23:40:00,54.1,38.3,30.06,West,270,0.0,0.0,55,0.00,,---,0.00,VWS V14.01,2013-04-18 21:40:00,
2013-04-18 23:41:00,54.1,38.3,30.06,WSW,248,0.0,0.0,55,0.00,,---,0.00,VWS V14.01,2013-04-18 21:41:00,
2013-04-18 23:43:00,54.1,38.3,30.06,NW,315,0.0,0.0,55,0.00,,---,0.00,VWS V14.01,2013-04-18 21:43:00,
2013-04-18 23:45:00,54.1,38.3,30.06,WNW,292,0.0,0.0,55,0.00,,---,0.00,VWS V14.01,2013-04-18 21:45:00,
2013-04-18 23:47:00,54.0,38.2,30.06,WSW,248,0.0,0.0,55,0.00,,---,0.00,VWS V14.01,2013-04-18 21:47:00,
2013-04-18 23:48:00,54.0,38.2,30.06,WNW,292,0.0,0.0,55,0.00,,---,0.00,VWS V14.01,2013-04-18 21:48:00,
2013-04-18 23:51:00,54.0,38.2,30.06,WNW,292,0.0,0.0,55,0.00,,---,0.00,VWS V14.01,2013-04-18 21:51:00,
2013-04-18 23:54:00,54.0,38.2,30.06,WSW,248,0.0,0.0,55,0.00,,---,0.00,VWS V14.01,2013-04-18 21:54:00,
2013-04-18 23:57:00,54.0,38.2,30.06,NNW,338,0.0,0.0,55,0.00,,---,0.00,VWS V14.01,2013-04-18 21:57:00,
2013-04-18 23:59:00,53.8,38.0,30.06,NNW,338,0.0,0.0,55,0.00,,---,0.00,VWS V14.01,2013-04-18 21:59:00,